ECMWFFLT2_sfc_dewp_045.txt.gz
Dewpoint
25 26 30 29 27 25 27 29 28 27 30 30 29 30 32 29 27 25 29 26 26 28 27 27 27 29 30 30 31 33 35 42 50 51 52 55 56 58 59 59 60 62 62 63 62 63 63 64 65 65 67 69 69 69 70 70 71 71 71 72 72 72 72
28 30 30 29 29 28 29 27 27 31 32 31 30 25 29 26 23 28 25 22 23 23 22 25 27 27 29 30 31 31 35 39 47 47 51 54 55 57 59 60 61 62 62 62 61 62 63 64 65 66 68 68 69 69 69 70 70 71 71 71 71 72 72
29 30 29 27 28 29 27 26 28 29 30 29 32 31 26 25 23 25 24 23 22 22 24 22 25 26 26 32 34 33 33 37 40 43 49 54 55 56 58 59 61 61 61 61 62 61 61 63 65 66 67 67 68 68 68 68 69 69 70 69 70 72 72
29 27 26 25 26 28 29 29 30 29 27 30 31 31 30 31 26 27 25 23 22 24 23 21 23 26 27 27 33 33 33 36 40 44 45 51 55 56 57 58 59 60 60 60 60 61 60 62 64 64 65 65 66 66 68 68 68 70 70 70 71 71 71
27 24 26 24 26 27 28 28 27 27 27 30 30 31 28 28 27 26 26 22 24 26 26 23 24 26 27 28 35 39 38 37 39 44 47 50 54 56 57 57 58 59 60 59 60 61 60 61 63 64 64 64 65 65 66 67 68 68 68 69 69 71 71
25 24 29 29 29 28 27 26 27 27 27 27 27 27 29 27 27 29 27 25 29 24 30 26 22 25 29 32 33 38 38 36 41 44 48 52 54 56 57 56 57 58 60 60 60 61 61 61 62 62 62 63 64 65 65 66 67 67 67 68 70 71 71
26 26 28 29 28 27 26 26 26 27 28 29 28 26 28 29 28 27 28 27 29 32 36 34 27 28 26 31 33 34 34 38 39 45 47 52 55 55 55 56 56 58 60 61 60 61 62 62 62 62 63 63 63 64 65 66 66 67 67 67 69 71 71
28 27 27 28 28 28 27 26 27 27 26 26 27 29 31 30 29 28 28 28 28 30 40 39 32 34 29 31 32 38 30 35 40 45 47 52 56 57 55 56 55 58 59 61 63 63 63 63 64 63 63 64 64 64 65 65 65 66 66 67 68 70 71
24 23 27 27 27 28 27 26 28 27 27 27 28 27 35 30 28 29 28 27 29 32 45 43 35 31 25 22 21 25 31 40 40 43 49 52 58 59 56 57 57 59 60 62 64 64 66 65 62 63 63 63 63 64 65 65 65 66 66 68 68 69 69
21 21 21 23 25 27 27 28 26 28 27 28 29 28 31 26 34 34 29 30 32 34 43 40 35 34 37 30 26 24 26 36 34 39 43 54 58 60 58 58 58 59 62 64 66 67 67 64 62 65 65 64 63 64 65 65 65 66 66 67 68 69 69
28 30 30 28 30 28 25 25 26 26 27 28 30 32 30 27 33 31 33 33 31 31 28 31 29 35 31 30 40 32 33 35 37 49 52 48 55 58 58 59 59 63 65 66 66 67 64 62 62 63 64 64 63 66 66 65 66 66 67 67 69 68 68
31 30 29 28 28 26 26 26 26 26 27 30 31 30 28 39 28 25 36 41 32 29 31 38 43 43 46 41 40 39 40 44 44 42 46 52 49 54 58 60 61 62 65 66 67 67 64 62 63 63 63 63 64 66 66 66 65 66 67 68 69 69 69
28 28 28 28 27 27 27 27 26 26 28 31 34 35 34 37 32 29 38 43 36 35 43 53 54 58 60 57 58 57 58 58 60 60 55 48 37 48 52 59 63 63 62 65 67 65 64 63 63 63 63 64 65 67 66 66 65 66 68 69 69 69 70
29 29 28 29 28 27 27 27 27 28 30 37 41 41 40 38 39 36 34 41 40 52 56 57 58 61 61 61 61 63 63 63 65 64 61 54 46 38 46 54 58 63 63 64 67 67 67 64 64 63 64 65 65 65 65 65 66 67 68 69 70 69 69
29 28 29 28 27 26 26 27 27 30 40 44 44 44 45 43 40 37 36 39 38 51 58 59 60 61 61 61 61 61 63 63 63 64 63 60 52 46 42 55 57 61 62 64 66 67 67 66 65 64 65 65 65 64 64 65 66 66 68 70 69 69 70
28 28 28 26 27 26 26 27 33 41 43 45 46 46 47 47 47 47 44 39 38 55 57 59 61 60 61 60 61 61 62 62 63 63 64 64 62 53 44 42 53 59 61 64 65 65 64 64 65 64 66 64 64 63 64 65 65 66 67 68 68 70 69
28 28 29 28 27 27 28 28 30 43 43 45 46 44 45 45 48 47 41 37 52 52 54 57 59 60 61 61 61 62 63 64 63 63 64 65 65 60 53 46 53 55 57 61 65 63 63 63 63 64 66 64 65 64 65 65 66 66 66 66 68 70 70
27 27 29 29 32 29 28 38 41 44 42 43 43 43 43 44 45 46 48 49 50 50 50 54 58 58 61 63 63 64 64 63 64 64 65 65 66 62 54 47 45 54 60 61 63 64 65 64 63 64 65 64 65 64 65 66 66 67 67 67 69 70 70
27 29 30 31 29 27 40 40 41 42 42 43 44 44 42 43 44 44 45 46 46 47 48 50 56 60 61 63 62 62 62 63 64 64 65 66 66 66 59 53 48 58 63 64 64 65 64 63 65 64 64 64 65 65 66 66 67 69 69 69 70 70 71
30 28 28 27 26 40 40 40 41 42 41 42 45 45 42 42 43 44 44 45 46 46 46 47 53 57 61 62 62 61 60 61 62 64 65 65 66 66 62 56 58 62 59 63 63 64 64 64 63 64 64 64 64 64 65 65 66 69 70 70 70 70 71
28 26 26 27 34 39 40 39 40 40 42 42 42 41 44 43 43 44 45 45 45 45 46 47 50 55 59 60 60 59 56 57 60 63 65 66 66 66 63 58 61 65 64 64 62 66 64 63 64 63 64 63 64 64 64 65 68 67 68 70 69 71 71
32 27 26 25 31 32 36 40 40 42 42 44 43 43 45 45 44 46 46 44 44 45 46 47 48 54 59 57 57 56 53 54 56 61 65 66 67 67 63 63 64 66 65 64 66 63 64 64 63 64 64 64 65 66 65 66 67 67 68 68 69 71 70
30 28 27 26 30 34 38 39 41 42 42 44 45 44 42 46 46 46 46 44 44 45 45 47 48 53 54 53 53 52 51 53 58 61 64 65 66 67 66 63 62 62 66 65 64 65 65 63 64 66 66 66 67 67 67 67 67 67 68 68 69 70 70
30 28 26 26 32 31 38 40 40 41 43 45 45 40 40 45 45 45 46 45 44 45 45 47 47 46 46 47 49 50 51 54 59 62 63 65 66 67 68 67 66 67 69 68 65 64 63 66 66 67 66 67 68 68 68 67 66 68 68 69 70 70 70
29 31 29 33 36 38 39 39 41 42 45 46 41 37 39 44 44 45 46 45 43 45 45 46 46 48 50 51 52 52 52 55 59 60 62 64 66 67 67 69 71 67 67 65 64 62 66 68 65 66 68 66 68 70 70 69 68 67 69 70 71 72 72
29 30 29 30 37 38 38 40 43 43 44 39 35 40 45 45 43 46 46 45 44 44 45 45 48 50 50 52 51 51 52 56 58 59 61 63 65 66 68 70 70 70 67 68 65 64 70 67 67 68 69 69 71 71 69 68 69 68 70 72 72 73 73
34 34 32 32 29 36 39 42 42 43 39 36 42 43 43 44 44 45 44 45 45 44 44 46 48 50 49 49 50 52 52 52 53 57 59 61 64 65 67 68 68 69 70 70 68 67 66 65 66 67 66 70 71 71 70 71 70 71 72 72 73 73 73
31 30 29 29 36 39 42 41 36 40 42 44 43 43 42 42 44 45 45 44 45 45 44 45 48 50 49 49 50 50 48 47 50 52 57 60 62 65 66 67 68 68 70 71 71 71 67 66 67 67 68 71 72 71 72 73 71 72 73 73 74 73 73
33 33 35 38 41 43 43 43 44 44 43 44 44 44 43 42 44 44 45 44 44 45 45 44 48 49 50 49 49 49 50 48 50 49 54 59 60 63 65 66 68 69 69 70 71 71 71 73 72 71 72 72 72 72 76 76 76 74 74 74 74 74 73
39 42 41 42 41 41 43 43 46 44 44 45 45 43 42 43 45 45 46 46 45 46 46 46 48 48 50 50 49 48 49 46 48 50 51 58 60 61 64 66 67 68 69 70 70 71 72 73 73 75 74 73 74 75 76 77 77 76 76 76 75 74 74
34 32 40 38 39 41 44 45 44 44 44 45 45 45 45 43 44 45 45 47 46 46 46 46 47 47 49 49 48 47 48 47 47 48 50 57 59 60 63 66 67 67 68 69 70 70 70 72 73 74 75 76 76 76 76 77 77 78 77 77 76 76 76
33 32 38 38 40 42 42 44 43 41 43 44 45 45 44 44 46 46 46 45 45 47 46 46 46 46 48 48 46 47 48 49 47 49 50 55 58 60 62 65 67 67 68 68 69 69 69 70 72 73 73 74 75 76 76 76 77 78 78 78 77 77 77
35 36 38 38 39 40 40 40 40 40 42 44 44 45 44 44 44 44 44 46 45 45 47 47 47 46 48 48 46 46 48 49 48 48 50 55 58 59 61 64 66 66 67 68 69 68 69 70 71 72 73 74 74 75 76 77 78 77 76 76 78 77 77
32 33 36 39 35 34 37 38 39 39 41 42 44 45 45 44 45 45 45 45 46 47 46 47 48 47 48 48 46 47 49 50 50 49 51 53 55 58 60 63 65 66 67 68 68 69 70 71 71 72 72 73 73 73 74 76 77 77 77 76 76 77 77
32 38 39 40 41 40 39 39 39 40 41 42 43 44 45 45 44 45 46 46 46 46 46 46 47 46 47 48 47 47 49 51 51 50 52 50 52 57 59 62 63 64 66 68 68 69 69 70 70 70 71 71 72 71 74 74 76 76 76 76 76 76 76
39 39 39 40 41 39 39 40 40 40 41 42 43 46 46 47 46 45 47 47 46 46 46 46 49 46 48 48 47 47 49 51 52 51 49 48 49 52 58 61 62 63 65 66 67 68 69 70 70 70 69 69 71 69 72 73 74 75 76 76 75 75 75
39 39 40 40 40 40 41 41 40 40 41 42 43 45 46 46 47 47 47 48 49 48 47 46 47 49 49 50 48 48 49 49 50 50 49 49 47 49 52 57 61 63 64 65 67 68 69 70 70 70 69 69 70 69 71 72 73 74 75 74 74 74 75

ECMWFFLT2_sfc_dewp_048.txt.gz
Dewpoint
24 24 26 25 23 20 22 20 19 19 20 20 24 28 25 26 27 26 28 27 26 26 26 27 27 25 26 28 28 28 30 34 42 42 44 48 50 53 57 59 61 64 64 66 66 67 66 67 67 68 69 70 71 71 71 73 74 74 74 74 73 74 74
24 27 25 26 25 24 21 21 21 21 21 23 25 22 26 24 23 26 23 23 25 25 24 24 23 23 21 23 25 25 30 29 33 38 42 47 49 51 55 60 62 63 63 65 65 65 65 66 67 68 70 70 71 71 71 72 73 73 73 73 73 73 74
21 27 28 26 26 27 25 22 24 21 21 22 27 27 24 22 22 22 21 20 19 22 26 24 22 20 19 22 25 24 23 26 28 32 39 46 48 49 54 57 60 61 62 63 65 64 64 66 68 68 68 68 69 70 70 70 71 71 72 71 72 73 73
23 26 26 24 24 24 25 27 26 24 24 24 26 27 30 30 23 25 23 19 21 24 23 21 24 25 24 21 23 20 20 25 26 30 31 39 46 48 51 55 58 60 61 61 62 63 63 64 66 66 67 67 67 68 70 70 70 71 72 72 72 72 72
25 24 23 22 23 22 23 24 25 26 24 25 25 25 27 27 27 25 26 22 24 26 23 20 24 27 29 26 26 27 25 25 23 28 30 38 44 45 45 50 55 58 61 60 61 62 62 63 65 65 65 66 66 67 68 68 70 69 70 70 70 72 72
21 21 21 23 22 22 22 22 23 24 25 24 24 26 26 24 25 26 25 25 31 24 23 22 22 25 23 26 27 27 28 26 30 28 33 41 42 46 46 44 50 54 60 61 61 62 62 62 63 64 64 65 65 66 66 67 67 68 68 68 70 72 72
23 19 21 25 28 28 27 26 22 24 24 26 26 24 24 26 26 24 25 25 29 32 29 27 24 23 18 22 22 23 22 27 27 29 30 37 42 45 45 46 45 51 59 61 61 63 63 63 63 63 64 64 64 65 66 66 66 67 67 67 69 72 72
26 27 26 26 27 26 25 26 27 24 24 24 25 26 28 26 28 27 26 28 27 29 36 32 26 32 27 32 27 30 23 21 26 30 32 39 45 52 49 46 44 53 59 62 63 63 63 63 64 64 64 64 64 65 65 65 65 65 66 67 68 71 71
25 23 23 22 25 26 25 23 25 28 26 26 26 30 33 31 27 24 27 25 26 29 34 35 30 26 24 26 26 27 29 32 30 29 33 38 50 54 49 49 52 56 58 61 64 64 66 65 62 64 64 64 64 65 64 64 64 64 66 67 67 69 70
20 18 17 20 25 24 25 26 25 28 28 29 29 28 32 28 34 35 29 27 31 34 38 35 34 30 31 28 26 26 27 32 29 38 48 51 50 58 58 56 56 56 60 63 65 66 66 64 62 65 66 64 64 64 64 64 64 65 65 66 67 68 69
27 29 37 32 31 29 26 25 25 27 27 28 30 32 31 29 33 32 35 33 31 32 31 35 32 30 24 31 41 41 42 44 41 48 47 41 50 57 58 60 58 62 64 65 66 67 64 63 63 63 64 64 63 65 66 64 65 65 67 67 68 68 69
31 31 32 31 30 28 27 26 26 26 27 29 30 30 30 37 33 29 34 37 32 30 33 35 39 47 56 55 57 57 57 58 57 56 58 57 42 50 55 57 59 61 64 65 67 67 65 63 63 63 64 64 64 65 65 65 65 65 66 68 68 69 70
26 26 26 27 27 27 28 27 26 26 27 28 30 31 31 34 33 30 36 38 35 32 30 46 53 56 57 56 58 59 60 58 61 62 60 56 49 45 48 58 61 62 61 66 68 67 66 64 63 64 63 64 65 66 66 66 64 65 68 68 69 68 70
24 25 25 26 27 26 27 27 27 27 26 27 28 30 31 31 38 37 35 39 38 34 46 52 55 57 56 57 59 60 61 59 63 62 61 58 57 56 50 52 57 62 63 66 69 69 68 65 65 63 64 65 64 64 65 64 66 65 67 68 69 69 70
26 22 24 25 25 25 26 27 26 25 25 26 27 30 31 33 33 32 34 36 37 44 53 54 55 57 57 56 59 59 61 61 61 61 61 61 62 63 64 66 55 60 63 64 68 69 69 67 65 64 64 65 64 63 64 64 66 66 66 69 69 69 70
23 25 25 25 25 25 25 26 26 26 25 26 28 32 37 36 35 37 35 36 35 38 52 53 53 54 56 57 58 59 60 61 62 62 62 63 64 64 64 66 67 65 57 61 64 67 66 65 65 64 66 65 64 63 64 65 64 64 66 68 68 71 70
22 22 26 26 26 24 23 24 25 27 27 28 44 45 45 44 47 45 37 35 49 50 52 51 53 53 54 57 59 60 61 63 62 62 62 62 63 64 66 66 67 66 62 56 63 64 64 63 63 63 65 64 65 65 66 66 66 65 66 67 69 71 71
24 26 29 29 26 23 22 28 28 27 25 39 43 43 43 44 45 45 47 48 48 49 49 49 51 52 56 60 62 62 60 60 59 58 59 60 61 63 64 65 66 67 66 61 56 63 65 64 61 63 65 64 65 65 65 67 66 67 68 69 71 71 72
22 25 30 30 25 23 31 37 34 29 27 45 43 44 43 44 45 45 45 45 46 47 47 49 51 53 53 57 62 57 55 55 55 55 56 58 60 62 64 66 66 68 68 64 57 58 62 62 63 63 64 64 65 64 66 66 67 69 69 70 72 72 72
25 26 26 25 24 37 41 43 43 47 42 44 43 44 44 45 44 46 46 46 46 47 47 48 51 53 53 58 60 55 53 53 53 53 54 56 57 60 64 66 67 68 67 64 55 54 62 62 61 62 63 64 64 64 64 65 66 68 70 71 71 72 73
23 24 25 26 34 36 43 43 45 44 44 44 43 43 43 44 44 45 45 45 44 44 46 47 50 52 54 56 62 52 51 51 51 52 52 53 56 61 65 65 66 68 68 64 58 57 60 61 60 61 62 63 63 63 63 65 68 67 69 71 71 73 73
27 24 26 27 27 27 36 41 41 42 42 43 44 46 43 44 42 44 45 44 44 44 45 47 49 52 56 55 57 51 49 49 49 50 51 53 57 62 65 67 67 68 65 62 59 57 61 62 61 62 63 64 65 65 64 65 66 67 68 70 71 73 72
29 28 25 26 26 28 39 40 41 40 41 45 46 44 43 43 42 43 43 42 43 43 45 46 49 54 54 52 51 48 47 47 48 49 51 53 57 63 66 65 65 67 67 64 59 61 63 61 61 64 64 64 64 66 66 66 67 68 68 69 70 72 72
26 26 26 25 28 30 39 41 41 41 41 44 45 39 39 43 42 42 43 42 42 42 45 46 48 48 48 47 47 46 46 46 47 49 51 53 57 65 66 65 67 68 70 66 62 61 62 64 63 66 64 65 66 66 67 66 66 68 69 70 71 71 72
25 28 26 28 29 38 40 39 40 43 44 47 40 36 41 43 43 43 42 42 41 42 43 44 44 46 47 47 48 47 47 46 47 49 50 52 58 64 66 66 69 69 68 65 62 61 63 66 63 64 65 65 67 69 68 68 67 67 69 70 71 73 73
24 26 26 26 31 40 39 39 42 44 43 39 39 41 44 44 43 43 42 43 42 42 42 43 43 44 45 46 47 46 47 47 47 49 49 51 58 63 67 69 68 68 66 66 64 61 65 65 66 66 66 67 69 70 68 67 68 67 69 71 71 72 73
28 30 28 29 26 38 39 41 39 41 39 38 41 43 41 43 42 42 42 42 42 42 42 43 43 44 44 45 45 46 47 45 46 48 49 51 55 61 65 68 68 66 69 66 63 62 63 64 63 64 65 69 70 70 69 70 69 69 70 71 72 73 73
29 27 27 29 36 37 41 40 36 41 43 45 44 42 41 42 42 42 42 42 43 43 42 42 43 44 45 46 45 47 46 46 46 49 49 51 54 58 62 67 68 69 69 72 71 64 65 66 66 67 68 70 71 71 71 72 70 70 71 72 74 73 73
34 31 34 37 39 40 40 42 42 44 45 46 46 43 42 42 41 43 42 43 43 44 43 43 43 44 45 45 45 46 46 45 46 49 50 51 55 56 60 65 68 69 68 70 71 69 67 68 68 70 70 72 73 73 73 73 72 72 72 73 74 74 73
40 41 41 38 37 38 42 45 45 44 44 44 44 43 42 42 42 42 41 42 43 44 44 43 44 44 45 46 45 46 47 46 47 50 49 51 54 54 57 62 67 69 69 68 69 71 72 70 69 71 71 72 74 74 74 74 73 73 74 75 75 75 75
35 31 37 37 37 38 43 42 42 44 44 45 46 44 42 43 43 43 43 43 46 46 46 45 44 45 46 46 46 46 48 47 48 48 50 52 52 53 56 61 67 68 71 70 70 71 72 72 72 71 72 73 74 75 76 74 73 75 76 76 75 75 75
35 35 38 38 38 39 42 44 41 41 42 44 45 44 43 44 44 44 44 44 45 46 44 46 46 45 47 45 45 45 46 47 48 49 51 51 50 52 55 61 66 67 69 71 71 71 71 73 74 75 75 76 76 77 76 75 75 76 76 76 75 75 75
38 36 37 37 38 39 41 40 40 42 42 43 44 44 43 43 44 44 44 45 46 45 45 46 47 46 48 46 45 45 46 47 47 48 50 50 51 52 53 59 64 67 68 69 71 71 71 72 73 74 75 76 76 77 76 76 76 76 76 75 75 74 73
31 32 36 39 34 35 38 38 40 42 42 41 42 43 42 43 44 45 45 45 46 46 46 46 46 47 47 48 47 46 47 47 48 48 49 50 49 49 52 57 62 65 67 68 69 70 72 73 73 73 73 74 74 74 75 76 77 76 76 75 75 75 73
31 37 39 40 40 40 41 40 41 42 42 42 42 42 42 43 43 45 45 45 45 46 48 47 48 46 47 49 48 47 47 47 47 47 49 50 49 48 51 55 59 63 66 66 68 69 70 71 71 72 73 73 74 74 76 76 76 76 77 75 74 74 75
38 39 40 42 41 39 41 42 41 41 44 43 41 42 42 43 44 45 46 46 47 47 48 49 48 48 48 49 48 48 48 48 48 48 49 51 49 49 51 55 58 62 64 65 66 68 69 69 69 69 69 71 72 71 73 74 76 77 76 75 73 73 72
38 40 41 42 40 41 43 42 41 42 43 43 43 42 42 43 44 45 46 46 47 49 49 48 49 48 48 47 49 50 50 49 49 49 51 52 50 49 50 53 57 61 63 66 66 67 68 68 68 68 68 69 70 70 72 73 74 75 76 74 72 72 75

ECMWFFLT2_sfc_dewp_051.txt.gz
Dewpoint
18 15 20 21 19 16 17 19 19 18 19 19 23 25 21 22 23 24 24 21 21 21 19 21 25 19 20 23 27 33 36 35 39 42 44 48 48 50 52 58 56 60 64 65 66 67 67 67 67 67 69 69 70 71 71 74 75 75 75 75 75 74 74
21 21 19 21 22 19 16 16 19 20 18 18 23 19 24 22 21 24 20 19 23 22 21 25 25 21 19 21 22 29 36 35 35 40 45 48 47 48 53 60 59 62 64 64 65 65 66 67 67 68 70 69 70 70 71 73 74 75 74 74 74 74 74
17 19 19 18 21 22 17 15 19 17 18 18 22 23 20 19 22 25 23 21 21 24 26 23 25 23 21 24 26 26 28 32 36 38 42 47 47 47 51 53 60 63 61 63 66 65 65 67 69 68 68 68 69 70 71 71 73 73 73 72 73 73 73
12 14 17 19 19 21 21 18 16 18 19 18 20 21 24 25 22 24 22 21 23 24 26 24 25 27 26 20 22 23 23 28 33 37 37 41 45 47 48 51 54 61 60 58 64 64 64 66 67 67 67 67 68 69 70 71 72 73 74 73 73 73 73
11 12 13 12 16 17 16 16 16 18 21 20 17 18 19 22 25 24 24 20 24 25 22 23 27 28 28 24 23 26 24 25 27 31 32 36 41 45 48 50 54 59 59 60 63 64 64 65 67 67 66 67 67 68 69 70 72 71 71 71 72 73 73
14 13 14 14 14 16 17 15 16 17 21 23 19 19 18 18 22 25 24 23 28 21 20 20 21 26 25 26 25 23 23 20 29 29 30 32 35 44 48 49 52 54 60 62 62 60 65 64 65 66 66 66 66 67 68 69 70 70 70 70 72 73 73
12 14 13 12 12 14 16 17 16 19 21 25 23 20 20 19 19 21 25 24 27 30 28 26 22 22 21 25 22 22 20 24 22 24 23 29 37 41 43 48 50 53 55 58 60 63 62 64 65 65 66 66 66 67 67 68 69 70 69 69 70 73 72
24 24 23 22 16 14 20 24 21 23 18 17 22 22 23 22 23 22 22 26 24 27 34 30 25 28 23 28 23 26 21 22 25 25 26 32 35 41 44 48 47 52 55 60 64 62 65 64 66 66 65 66 66 66 66 67 68 68 68 68 69 72 71
22 18 20 20 21 20 20 20 23 23 24 18 18 24 26 24 22 21 23 23 22 28 32 31 26 25 21 22 20 23 25 25 23 27 29 30 41 42 40 46 49 53 53 55 64 64 67 66 64 66 66 66 65 66 66 66 67 68 68 68 68 70 70
17 17 15 15 17 18 19 20 18 22 22 23 20 19 26 24 31 35 32 25 28 26 34 32 32 29 31 26 24 23 27 33 27 30 29 35 37 46 45 47 48 47 53 59 65 68 68 64 63 66 67 66 65 65 66 66 66 67 66 67 67 69 69
21 21 33 32 32 30 27 28 22 22 24 22 24 22 22 23 29 31 33 33 30 28 26 29 30 31 30 24 25 36 38 35 39 49 47 41 38 45 44 49 48 56 62 66 67 69 63 62 62 64 65 65 65 67 67 65 66 66 67 67 68 69 69
27 26 27 27 28 28 28 27 27 28 28 28 31 27 21 30 26 27 33 37 30 32 30 33 40 37 34 39 41 43 47 47 44 48 53 51 42 41 46 49 51 54 63 65 67 67 64 63 63 63 64 64 65 66 66 66 65 65 66 66 68 69 70
18 19 20 21 24 22 24 25 26 26 28 28 28 30 26 31 27 27 34 37 34 33 39 47 50 54 48 49 51 50 52 53 54 56 52 42 41 48 50 57 60 61 58 66 67 65 65 64 63 63 63 64 66 67 67 67 65 65 67 67 68 68 70
14 15 14 15 16 18 20 23 25 26 27 27 27 27 25 26 34 32 31 37 32 35 46 47 49 50 49 49 52 54 55 56 59 56 54 55 56 51 51 55 53 60 60 64 67 68 69 65 65 62 64 66 64 65 66 65 66 65 67 67 68 68 69
17 15 14 15 16 17 17 20 23 25 26 26 27 26 27 29 28 28 30 35 34 44 51 51 50 50 46 49 50 55 58 57 56 58 57 59 61 60 62 64 64 64 60 62 66 69 69 68 66 64 64 66 65 63 65 65 66 65 65 68 68 68 70
19 17 15 14 16 18 18 19 21 23 24 26 26 28 28 29 31 31 30 32 34 43 51 48 50 49 47 48 54 55 59 57 57 56 56 57 60 61 62 63 66 66 64 62 63 66 66 65 65 64 66 65 64 63 64 65 64 64 65 67 68 70 70
19 18 18 15 15 17 16 18 19 23 25 27 27 28 29 29 27 28 30 33 42 50 51 50 48 46 49 53 57 58 58 60 58 58 57 57 57 59 61 62 63 64 63 64 65 62 65 66 64 63 64 63 65 65 66 65 66 64 65 66 69 71 70
19 18 18 18 21 20 17 17 17 20 22 26 26 26 27 28 29 34 36 39 44 49 49 49 51 50 50 52 55 57 57 57 58 56 56 57 57 58 59 61 61 64 67 68 69 69 67 66 64 63 65 64 65 64 64 66 66 67 68 68 70 70 72
20 21 22 19 19 19 25 19 25 35 43 38 25 29 28 30 35 36 40 43 46 49 48 49 50 52 52 51 56 54 53 55 54 55 55 56 56 58 59 61 61 64 67 68 69 69 66 65 65 65 63 63 65 64 64 65 66 71 69 70 71 71 72
23 21 18 18 17 24 30 34 44 44 42 42 43 34 27 35 38 43 44 44 46 48 47 47 50 51 51 50 57 53 51 52 52 52 53 53 55 56 58 60 61 64 64 67 67 68 69 68 61 62 61 62 62 63 62 64 66 67 70 72 70 72 72
21 20 18 19 24 24 30 34 43 41 41 42 42 42 43 44 44 44 45 46 46 46 46 47 48 50 50 49 57 50 50 50 50 50 52 52 54 55 57 57 59 63 66 67 67 69 68 66 63 60 62 61 61 62 63 63 67 66 68 70 70 72 73
23 21 18 19 18 19 26 42 43 42 43 41 43 45 44 44 42 43 44 45 46 46 47 48 49 50 49 47 47 50 48 48 49 49 51 51 53 53 55 57 58 62 65 67 67 67 68 66 63 60 62 62 63 65 64 64 65 66 67 68 70 72 72
22 21 20 20 21 24 40 41 41 40 40 44 44 42 42 47 44 44 44 43 45 46 46 47 51 50 44 42 51 48 48 47 49 48 50 50 51 53 54 55 57 61 65 68 68 67 68 66 62 60 62 63 62 65 66 64 66 67 67 68 70 72 72
25 22 21 21 25 23 40 41 40 38 40 45 45 38 38 45 48 44 44 43 43 45 47 48 50 50 48 50 48 47 46 47 48 50 49 50 51 52 53 55 58 61 65 68 69 67 66 66 62 60 62 64 65 65 65 64 65 66 68 69 71 73 73
24 23 21 23 26 41 41 40 39 40 45 43 38 34 40 46 46 44 43 43 42 44 45 47 48 50 48 48 48 46 46 46 48 48 48 49 50 52 53 54 60 59 63 66 66 66 67 67 61 59 63 63 65 68 67 67 66 66 68 70 72 74 74
21 21 19 20 23 41 40 40 40 43 41 38 37 41 44 46 45 43 42 42 43 43 44 45 46 46 46 48 46 45 45 46 48 47 47 48 50 52 54 56 57 58 59 65 69 66 67 64 62 63 66 67 70 70 67 66 67 67 69 71 72 74 74
26 26 22 23 22 38 40 41 38 42 37 38 41 43 43 45 44 44 42 43 43 43 42 43 44 45 44 45 45 46 46 45 46 47 47 48 49 51 53 54 54 55 59 64 68 70 63 62 63 63 62 69 69 70 68 70 68 69 70 71 73 74 75
29 23 24 26 35 37 40 41 37 41 43 44 44 44 42 43 44 44 43 42 42 42 43 42 44 45 45 46 46 46 45 44 45 47 48 48 48 50 52 52 53 55 60 66 70 70 70 65 64 64 66 71 71 70 71 72 70 70 71 73 74 74 74
34 30 36 39 39 38 39 44 42 42 42 42 42 44 44 43 43 44 43 43 43 43 43 44 44 44 45 46 45 45 44 44 44 46 48 48 48 50 52 52 54 55 59 64 69 70 69 68 66 68 68 70 72 71 72 74 74 72 72 73 74 74 73
39 40 40 41 38 37 38 40 42 41 41 41 42 43 42 43 44 46 43 44 43 43 43 44 45 45 46 47 45 45 44 44 46 48 48 48 49 51 53 53 54 56 58 64 69 69 72 69 67 72 69 69 72 72 72 74 74 74 74 75 75 75 75
35 32 40 39 37 37 39 43 43 41 41 41 42 43 43 43 44 45 45 44 45 44 44 45 45 44 45 47 48 48 46 45 47 47 48 49 50 52 53 54 56 56 59 65 71 71 71 70 67 66 70 71 73 75 75 73 73 75 75 75 75 75 75
36 35 38 37 37 38 42 41 39 39 40 41 41 42 43 43 44 45 45 44 45 46 44 45 45 44 45 46 48 48 48 47 47 48 49 49 52 52 53 56 56 57 59 64 71 72 73 72 74 70 71 72 74 74 74 73 72 74 75 75 75 75 74
34 35 35 37 37 41 42 40 39 41 41 40 41 42 42 42 43 44 43 44 44 45 45 45 46 46 46 46 46 48 48 49 48 48 49 50 52 53 53 56 56 57 59 63 70 71 71 72 75 76 75 74 75 75 75 74 75 75 75 75 75 75 73
30 33 35 39 33 33 35 37 40 41 40 41 42 42 42 42 43 44 45 44 44 45 46 46 46 46 48 48 47 49 50 51 51 50 50 50 51 52 53 57 57 57 59 62 69 72 73 73 74 74 75 76 76 73 74 73 75 76 76 76 76 75 74
31 36 39 39 40 39 38 39 41 41 41 42 42 41 42 43 43 45 45 44 44 45 46 47 47 47 48 49 48 48 51 52 52 51 51 51 50 52 53 56 56 56 58 61 69 71 72 73 73 73 73 74 75 73 74 74 75 76 76 75 74 73 74
36 36 37 40 42 39 39 41 41 40 42 41 41 42 43 43 43 44 45 44 44 45 46 47 47 48 48 49 50 49 51 51 53 52 53 52 50 52 53 55 56 56 57 60 68 70 71 71 72 72 72 73 74 73 74 74 74 75 75 74 73 72 72
35 36 38 39 39 40 41 41 40 41 42 42 41 42 43 43 44 44 45 45 45 45 46 47 48 48 48 48 50 51 51 52 54 54 54 54 52 52 53 55 56 56 57 61 68 70 70 70 70 71 70 71 73 73 74 75 74 75 75 73 70 70 71

ECMWFFLT2_sfc_dewp_057.txt.gz
Dewpoint
10 4 16 15 19 15 24 22 18 17 16 14 26 31 22 17 22 17 29 21 24 25 18 16 14 13 13 12 18 53 54 55 57 58 58 59 59 60 60 61 61 61 61 62 62 61 62 64 64 64 65 65 67 67 68 67 67 67 67 69 69 68 67
13 14 14 14 16 15 16 16 18 21 16 18 27 18 26 24 20 22 20 21 22 19 24 15 14 12 10 12 12 39 54 54 56 57 57 58 59 59 60 60 61 61 61 62 62 62 63 64 64 64 65 65 66 67 68 68 68 67 66 67 68 68 67
11 13 13 13 16 17 15 14 16 13 26 21 26 27 18 19 21 19 21 20 20 26 32 15 14 14 13 14 16 18 54 55 55 56 57 58 58 58 59 60 61 62 62 62 63 63 64 65 65 64 64 65 66 67 68 68 68 68 67 66 67 68 67
8 9 12 17 14 18 19 17 15 17 17 18 24 31 24 21 21 25 19 19 19 29 27 21 15 16 16 17 18 15 51 54 56 55 56 56 57 57 59 60 61 62 63 63 63 64 64 65 65 65 64 65 65 66 68 68 68 69 68 66 67 67 67
7 10 12 9 11 13 13 14 15 19 26 21 20 27 21 23 22 19 21 19 26 24 20 18 27 25 19 17 26 23 20 52 54 54 55 55 56 58 59 60 61 62 63 64 64 64 64 65 65 65 64 64 65 65 67 69 69 69 68 67 67 67 68
14 7 9 15 14 13 13 13 13 14 14 19 20 19 19 17 21 20 18 19 25 20 21 27 32 43 25 18 26 36 23 28 54 54 54 55 56 58 58 59 60 62 63 64 64 64 64 64 65 65 65 65 64 65 66 69 69 69 69 68 67 68 68
17 17 17 17 15 13 12 12 11 11 13 13 18 17 26 22 25 19 25 21 21 23 28 27 46 50 48 26 24 31 29 29 52 53 54 56 57 57 56 57 59 60 62 64 64 64 64 64 64 65 65 65 64 65 66 69 70 70 69 69 68 68 68
21 18 17 18 18 14 10 11 13 11 9 10 14 20 29 22 22 25 26 29 19 19 31 45 50 52 53 39 27 29 30 30 50 53 54 56 57 57 57 58 59 60 62 64 64 64 63 63 64 65 65 65 65 65 66 68 69 70 70 70 69 69 69
21 19 20 19 20 17 15 19 20 24 25 25 25 26 26 23 26 27 25 25 24 28 39 50 53 53 54 55 56 52 47 42 43 39 46 55 57 57 57 57 59 61 62 63 64 64 65 65 66 66 66 65 65 65 65 67 69 70 71 71 70 70 69
21 19 19 27 26 25 24 23 22 22 23 23 24 25 27 27 36 34 31 30 31 34 34 40 52 53 54 56 56 55 54 54 54 57 56 53 56 57 57 57 59 61 62 63 64 64 65 65 66 67 67 66 66 66 66 67 69 70 71 71 71 71 70
22 24 26 26 26 21 20 19 16 16 18 20 24 30 32 30 31 31 34 38 34 32 30 38 51 52 53 54 56 55 53 53 54 55 57 56 56 59 57 57 59 60 61 61 63 65 65 64 66 67 67 66 66 66 66 67 68 70 71 71 71 71 71
23 21 20 20 21 17 17 16 15 16 17 20 23 25 25 33 30 27 38 37 30 31 30 46 51 50 56 55 56 56 54 53 53 54 56 60 57 59 61 63 60 59 60 61 63 64 64 64 66 67 67 66 66 66 66 66 67 68 70 71 71 71 71
19 18 17 16 19 15 15 14 13 12 13 13 14 22 24 28 26 27 33 36 32 30 37 49 50 51 51 57 56 55 54 53 53 54 54 56 57 58 59 61 64 67 62 63 63 64 64 63 65 66 66 66 66 66 66 66 67 67 69 70 71 71 71
21 20 19 19 17 15 13 13 13 14 15 14 14 16 18 19 26 25 24 31 30 35 50 52 52 54 53 59 55 54 53 52 53 53 53 54 56 57 57 59 60 62 66 68 68 67 66 63 64 65 65 66 66 66 66 66 67 67 68 69 71 71 71
23 22 21 19 18 16 14 13 14 15 16 14 13 13 16 24 21 21 23 32 35 50 53 54 53 55 56 56 56 52 52 52 52 52 52 53 54 55 56 57 58 60 61 63 66 68 68 68 69 67 66 65 66 65 65 65 66 66 67 69 70 70 71
23 23 20 19 18 17 16 15 16 15 14 13 12 16 21 23 24 25 24 29 36 51 54 55 51 51 55 55 54 52 50 50 51 51 51 52 53 54 55 56 58 59 60 60 62 65 67 68 70 69 69 71 67 65 65 65 65 66 66 68 69 70 71
23 23 23 22 20 20 17 16 15 14 14 14 15 14 18 20 19 20 24 31 46 48 51 50 51 52 52 54 53 55 53 49 49 49 50 50 51 52 54 55 57 57 59 61 61 62 64 69 69 69 70 71 71 70 70 72 72 72 71 67 68 70 71
24 23 24 26 25 19 17 20 16 34 35 36 36 31 32 36 34 36 39 41 46 47 48 48 47 52 50 49 51 54 54 51 48 48 49 49 49 50 51 53 55 56 57 63 62 61 62 63 64 73 72 71 68 68 71 71 72 72 71 71 70 70 71
26 26 28 25 21 20 23 20 39 40 39 41 38 37 36 43 43 43 43 43 43 44 45 46 46 47 50 47 46 47 51 50 47 47 48 49 49 49 50 52 53 55 56 57 62 63 64 64 64 65 67 67 67 72 71 70 70 71 71 70 69 69 70
27 25 24 20 20 27 24 21 44 42 39 40 41 40 40 43 42 43 42 42 43 43 43 43 45 46 47 48 47 46 46 49 47 46 46 47 48 49 50 51 51 54 54 56 56 59 65 65 66 66 67 66 70 70 70 69 68 68 69 69 68 68 70
24 24 23 23 26 25 26 28 41 40 39 39 41 38 39 42 42 42 42 42 42 42 43 43 44 45 48 49 47 45 45 47 48 47 46 45 47 48 50 50 50 53 53 54 56 58 59 62 60 63 67 69 67 67 66 67 67 67 68 68 68 68 70
27 24 23 21 20 19 23 41 42 41 43 41 41 42 39 43 42 42 42 42 42 42 42 43 44 47 49 49 45 44 44 46 47 50 47 45 46 48 49 50 53 52 52 54 55 56 57 58 60 60 63 66 64 65 68 66 66 66 66 66 67 68 69
28 25 22 20 18 22 37 39 41 41 39 44 43 39 35 42 42 42 42 42 42 42 42 42 44 45 46 47 45 44 44 45 47 49 50 45 45 47 48 50 50 51 52 54 55 55 56 57 58 59 62 65 65 65 67 69 65 64 65 65 66 67 70
30 26 23 21 24 27 38 40 40 39 39 43 41 29 32 41 41 42 42 42 42 42 43 43 43 42 41 42 43 44 45 46 49 50 52 50 45 46 47 49 51 51 53 52 53 53 54 56 58 58 59 61 63 64 66 68 69 66 63 65 66 67 69
31 30 26 27 30 40 40 40 41 40 43 41 33 28 39 41 42 42 42 41 41 42 42 43 42 43 43 43 44 44 45 46 49 52 54 51 46 45 46 48 53 50 51 52 52 53 54 56 57 57 59 59 62 63 65 66 68 69 67 64 65 68 71
30 28 26 26 31 34 38 43 41 44 39 32 28 40 43 43 42 41 41 41 42 42 42 42 42 43 44 45 45 44 45 47 49 50 52 51 50 47 48 50 50 49 51 52 53 53 54 55 56 57 58 59 61 63 65 66 68 69 70 66 64 67 72
33 31 26 25 23 35 40 41 38 42 37 39 42 42 42 42 41 41 41 41 42 42 42 42 42 43 43 44 45 45 46 46 47 48 52 53 52 48 47 47 48 51 51 51 52 52 53 54 55 56 57 59 61 63 64 66 68 71 71 69 65 66 70
30 28 26 27 33 38 42 40 36 40 41 43 42 41 39 41 41 41 41 41 42 42 41 41 42 43 43 44 45 45 45 45 46 50 51 52 50 49 48 48 49 52 51 52 52 52 53 54 55 56 57 59 60 62 63 65 68 71 73 71 67 65 68
35 31 34 39 42 44 42 43 43 43 43 43 42 41 40 40 40 41 40 40 41 41 41 41 42 42 43 44 45 44 45 45 46 49 51 50 52 50 50 49 51 52 51 51 52 52 53 54 55 56 58 59 60 61 63 65 68 72 74 71 67 65 67
40 40 38 42 42 39 37 42 43 41 40 40 40 40 40 40 40 41 40 41 40 41 41 41 41 42 43 44 44 45 45 46 46 49 51 52 52 53 51 50 51 53 52 51 52 52 53 54 55 57 57 58 59 61 63 65 69 73 75 73 68 68 68
32 29 42 39 37 37 37 38 38 40 39 39 39 40 40 40 40 41 41 41 41 41 41 41 41 42 43 44 44 45 46 47 47 48 51 52 53 52 51 51 53 53 53 52 52 53 53 55 56 57 57 58 60 62 64 67 72 74 74 73 69 69 70
33 32 35 37 37 36 41 38 37 37 38 38 39 40 40 40 41 41 41 41 40 41 40 41 41 41 42 43 44 45 46 47 48 49 49 52 52 53 52 52 53 53 53 52 52 53 54 55 56 57 58 58 60 62 66 72 72 72 73 72 70 70 71
34 35 37 37 37 35 42 39 38 38 39 39 39 40 40 40 40 40 41 42 41 41 41 41 41 41 42 43 44 45 46 47 48 49 50 51 52 52 52 52 55 54 53 52 53 54 55 55 56 57 58 60 62 65 71 72 71 71 72 71 70 70 71
30 33 36 37 34 34 36 37 38 38 40 40 40 40 40 40 40 41 41 41 42 41 41 41 41 41 42 43 44 45 46 47 47 49 50 50 51 52 52 53 54 53 53 53 54 54 55 56 57 58 60 63 66 70 71 71 71 70 72 73 71 71 72
32 35 37 40 39 38 38 38 39 40 41 41 40 40 40 41 40 40 41 41 41 41 41 41 41 41 42 43 43 44 45 46 47 48 49 50 51 51 53 54 53 53 53 54 55 55 56 58 59 61 62 64 66 70 71 72 71 70 71 71 73 73 73
34 35 36 39 39 38 38 39 41 42 42 41 40 40 40 40 40 40 41 41 41 42 42 42 42 42 43 43 44 44 45 46 47 48 49 51 51 53 54 54 54 53 53 54 54 55 57 59 59 59 61 64 66 68 71 72 72 71 70 70 70 70 72
34 36 36 39 40 39 40 41 41 40 41 42 40 40 40 41 41 41 40 41 41 41 41 42 41 42 43 44 45 45 45 46 48 49 52 53 53 53 54 54 53 53 52 53 54 56 58 59 58 60 61 63 65 66 68 71 72 71 70 70 70 70 69

ECMWFFLT2_sfc_dewp_060.txt.gz
Dewpoint
10 11 11 9 19 15 20 18 18 17 22 18 26 34 31 25 20 17 31 21 21 26 23 21 21 16 13 39 45 49 51 54 58 59 60 60 60 60 61 61 60 61 60 61 61 61 62 63 63 64 65 64 64 64 65 66 66 68 68 69 68 67 67
15 16 10 14 16 17 16 15 16 20 24 21 21 14 24 22 19 22 24 24 24 24 24 31 23 18 15 17 44 46 50 53 57 58 59 60 60 60 61 61 61 61 60 60 60 61 62 62 63 64 65 65 65 65 65 65 66 67 68 68 68 67 67
17 14 16 15 16 16 13 13 17 17 19 18 29 23 17 15 17 18 21 26 27 30 29 39 43 42 42 46 30 46 48 53 56 57 58 59 60 60 60 61 61 60 60 60 60 61 62 62 64 64 65 66 66 65 65 65 65 66 67 68 68 67 67
16 12 17 17 16 16 15 14 13 18 18 27 23 24 26 21 20 20 18 23 21 32 43 49 52 53 53 53 50 35 47 52 55 57 57 58 59 60 60 61 61 61 60 60 60 60 61 62 63 64 65 65 66 66 66 65 66 66 67 68 69 67 66
17 16 18 16 16 14 13 11 14 14 17 20 19 24 20 23 22 20 20 16 29 42 51 51 52 53 54 53 52 44 42 50 54 56 57 58 59 59 60 60 61 61 61 60 60 60 61 63 63 64 64 65 66 66 66 66 66 66 66 67 68 68 67
18 18 21 19 17 17 14 12 20 21 21 20 13 14 23 20 20 19 15 15 30 34 43 50 51 53 54 54 52 52 45 49 53 56 57 58 58 59 59 60 60 61 61 61 61 60 61 62 63 64 65 65 65 66 66 66 66 66 66 66 67 68 68
18 19 22 21 25 23 18 22 19 20 21 22 22 19 22 23 23 26 29 20 28 35 38 49 52 53 55 54 52 52 53 54 53 55 56 57 58 58 59 59 60 61 61 61 61 61 61 62 63 64 64 64 65 65 66 67 66 66 66 66 66 67 68
26 25 22 27 27 24 23 23 20 17 16 17 19 24 28 26 29 28 28 26 24 33 35 47 51 54 55 54 52 52 52 54 57 57 55 57 57 58 59 59 60 60 61 61 62 62 62 62 63 64 64 64 64 65 66 67 67 66 66 66 65 66 67
13 11 24 29 28 24 22 21 20 18 17 16 18 29 30 30 32 30 27 22 29 31 34 49 50 54 55 53 52 52 52 53 54 57 59 57 57 58 58 59 59 60 61 61 62 62 63 63 63 64 64 64 64 64 65 66 67 67 67 66 66 65 66
13 14 21 24 24 22 21 22 18 18 16 15 16 21 25 26 35 30 27 29 33 29 34 50 51 53 54 54 53 52 52 52 52 54 56 58 60 61 60 59 59 60 61 62 63 63 63 63 63 64 64 64 64 64 65 66 67 67 67 67 66 65 65
23 25 26 26 27 21 17 17 16 15 15 15 20 26 27 25 28 24 29 33 25 24 26 50 52 53 56 56 53 52 51 51 51 52 54 55 57 59 59 61 63 63 64 63 63 64 63 63 63 64 64 64 64 64 64 65 67 67 67 67 67 66 66
28 26 26 23 25 20 19 17 16 16 15 18 21 19 17 26 22 22 36 35 23 22 32 49 52 55 56 58 55 53 50 49 50 50 52 56 54 55 57 58 59 60 64 67 66 65 64 63 63 64 64 64 64 64 64 65 66 67 68 68 68 67 67
23 23 23 23 25 21 19 18 18 17 16 17 17 22 19 22 21 19 28 32 27 25 44 50 53 55 55 57 58 53 51 49 49 49 49 49 50 52 54 55 57 59 59 60 64 67 67 66 64 64 64 64 65 64 64 64 66 67 68 68 68 68 68
25 25 24 24 23 21 20 19 18 17 16 15 18 18 16 16 21 22 24 31 33 38 50 51 53 54 53 55 58 56 52 50 49 49 49 48 49 50 51 53 54 56 57 59 60 61 62 63 65 66 66 66 65 65 64 64 66 67 69 69 69 69 69
25 25 26 24 22 21 23 23 22 20 18 17 16 15 16 26 25 25 23 32 35 48 50 51 52 52 51 52 53 55 53 51 49 48 50 48 48 49 50 51 52 53 55 57 58 59 60 61 62 64 66 67 67 66 65 65 66 68 69 70 70 70 70
24 25 25 25 26 25 24 23 22 20 19 17 17 19 21 28 30 28 31 37 43 45 47 49 49 49 49 49 50 53 53 52 53 48 49 50 48 48 49 50 51 52 53 54 55 57 58 61 62 62 64 67 68 66 66 66 66 67 69 70 70 71 71
25 25 29 25 26 25 20 21 21 26 29 28 35 37 42 43 41 37 37 37 44 44 46 44 44 47 47 48 48 49 52 53 52 49 49 49 49 47 50 52 54 52 52 53 54 55 57 60 61 62 63 65 68 70 69 67 67 67 67 68 69 70 71
24 28 29 30 27 20 20 27 41 40 38 39 38 39 42 42 43 43 43 43 43 43 43 42 43 45 46 46 48 49 50 52 52 52 49 48 50 49 47 49 53 55 53 53 54 55 56 58 59 63 64 66 65 69 70 71 70 68 68 68 69 70 70
25 29 29 26 20 20 27 29 44 42 42 41 41 42 42 42 42 42 42 42 42 42 43 43 43 44 49 45 45 45 48 51 52 52 52 50 50 46 47 47 49 52 55 55 56 57 59 59 60 61 61 61 61 64 66 69 70 70 69 69 69 69 69
28 25 24 17 19 29 30 27 45 43 42 40 41 42 41 42 42 42 42 42 42 43 42 43 43 44 44 46 45 44 45 48 50 52 52 53 50 48 46 46 48 50 49 53 54 57 60 60 59 59 60 60 62 62 64 64 68 69 69 68 68 68 69
22 25 24 22 26 26 26 26 40 40 38 39 39 35 39 41 42 42 42 42 42 42 43 43 43 44 45 47 46 44 44 45 48 52 53 53 54 51 49 47 47 49 50 50 51 53 54 56 57 60 60 60 59 60 61 63 65 67 68 69 69 68 69
28 25 23 19 21 19 26 39 42 42 41 41 42 40 38 42 41 42 42 41 42 42 42 43 43 44 42 48 45 44 44 45 45 48 53 53 54 54 53 49 47 48 49 50 52 52 52 53 54 57 58 58 59 60 60 61 63 65 67 67 68 69 69
28 26 24 22 19 22 33 37 41 40 40 42 43 39 36 41 41 42 42 41 41 42 42 42 43 42 40 42 43 43 44 45 45 46 52 53 53 54 53 50 48 48 49 51 52 52 52 52 53 54 56 58 58 59 60 61 62 63 65 67 67 68 69
31 28 26 24 24 21 36 40 41 40 42 44 36 28 31 41 40 41 42 41 41 41 42 43 42 42 40 41 42 43 44 45 45 46 48 50 52 54 54 53 51 50 52 51 51 51 51 52 53 54 55 56 58 59 59 60 60 62 64 66 68 68 67
32 31 29 29 28 38 39 40 40 41 44 39 31 26 37 41 41 42 42 41 41 42 42 42 40 42 43 42 43 44 44 44 45 46 47 48 51 52 51 54 55 51 49 51 51 51 51 52 53 54 55 55 57 58 59 59 60 61 63 65 67 69 70
31 30 29 28 29 31 38 40 41 44 38 27 29 38 40 40 41 42 42 41 41 42 41 41 41 42 43 44 43 43 43 44 45 45 46 47 48 52 55 54 54 52 51 51 51 52 52 52 53 54 54 55 57 57 58 58 60 61 62 63 65 67 69
34 33 30 28 25 36 40 40 39 42 34 34 39 41 42 43 42 41 42 41 41 41 40 41 41 41 41 42 42 42 43 43 44 45 46 47 48 50 53 53 54 53 51 51 52 52 52 52 53 54 54 55 57 58 58 59 60 61 62 63 64 66 68
23 25 24 26 34 38 41 40 35 40 41 42 42 41 39 41 41 41 40 41 41 41 41 40 40 40 40 41 41 42 42 43 44 45 45 47 48 50 51 53 53 53 53 53 52 52 52 52 53 54 55 56 57 58 58 59 60 61 62 63 65 66 69
31 26 29 37 40 42 44 43 42 43 43 41 41 40 39 40 40 41 40 40 41 41 40 40 40 40 40 40 41 41 42 43 43 44 45 46 48 50 51 52 53 53 52 53 52 52 52 52 53 55 56 56 57 57 58 60 61 61 62 63 65 67 70
38 39 37 39 41 42 39 40 42 40 39 40 40 39 39 40 40 40 40 40 40 40 41 40 40 40 40 40 40 41 41 42 43 45 46 47 48 50 51 51 51 53 53 53 53 52 51 52 54 56 56 56 57 58 59 61 62 62 63 64 66 69 72
28 25 37 40 39 39 37 38 39 41 41 40 40 40 40 40 40 40 41 41 41 41 41 41 40 40 41 41 41 41 42 42 43 44 46 47 48 49 49 50 53 52 53 53 53 52 52 52 53 55 56 57 58 59 60 62 64 65 65 67 70 71 70
29 28 33 37 38 38 37 38 38 38 39 40 40 41 40 40 41 41 41 42 41 42 41 41 41 40 40 40 40 41 41 42 43 44 45 47 47 47 48 50 52 53 53 53 52 52 51 52 54 55 57 57 57 59 60 62 64 66 69 70 70 70 70
33 35 35 36 35 34 39 39 38 39 40 40 40 40 40 41 41 41 41 42 41 41 41 41 41 41 41 40 40 40 41 42 42 43 44 45 46 47 48 49 52 52 53 54 53 52 51 52 54 56 57 56 56 57 59 62 63 64 66 69 70 70 70
29 30 33 35 30 31 34 35 37 38 40 41 40 41 41 41 40 40 40 40 41 41 42 41 41 41 41 41 41 41 41 41 42 43 44 45 46 47 48 49 51 53 55 54 53 52 52 52 54 56 56 55 55 57 59 60 61 63 65 67 70 70 70
28 33 36 37 36 36 36 36 38 40 41 41 41 41 40 40 40 40 40 40 40 41 41 42 42 41 42 41 42 41 41 41 43 44 44 45 45 46 48 49 50 52 54 54 53 52 51 53 55 57 56 55 55 57 58 60 61 62 63 66 69 70 70
33 35 36 37 37 36 36 39 40 41 42 42 42 41 41 41 40 40 40 41 41 41 41 41 42 42 42 42 41 41 41 41 42 43 44 45 46 47 48 50 52 53 54 53 52 52 51 54 56 57 55 55 55 56 58 60 61 62 63 65 68 70 70
32 36 36 37 38 38 39 39 41 42 42 44 42 42 42 42 41 41 41 41 41 41 41 41 41 41 41 41 41 41 41 42 44 45 47 49 49 50 50 52 53 54 53 52 51 51 52 55 57 57 55 54 55 56 58 59 61 62 63 66 68 70 70

ECMWFFLT2_sfc_dewp_063.txt.gz
Dewpoint
15 16 18 16 18 15 20 18 19 21 21 26 28 34 32 25 22 19 29 25 25 26 31 52 53 53 54 54 53 53 52 50 56 58 59 60 60 60 60 60 60 61 61 61 61 61 62 62 62 60 60 61 62 64 65 66 66 67 68 68 68 68 68
15 17 18 18 16 16 15 14 13 16 23 23 21 14 22 24 15 18 24 32 41 42 37 50 52 52 53 52 52 52 53 53 52 57 59 60 60 60 61 61 61 61 61 61 61 61 62 62 62 61 61 61 62 64 65 65 66 66 67 68 68 68 68
17 17 18 13 14 17 14 12 20 24 19 18 26 21 16 15 15 17 20 31 41 42 45 49 51 52 51 51 51 52 52 53 54 52 58 60 61 61 61 61 61 61 61 61 61 61 61 62 63 62 61 61 61 63 64 65 65 66 67 68 68 68 68
18 19 17 15 15 18 19 24 19 22 23 27 21 20 25 19 18 18 15 30 35 38 37 48 51 53 51 50 50 51 51 52 54 55 54 59 60 61 61 61 61 61 61 60 60 60 61 62 63 63 62 61 61 61 64 65 65 66 67 67 68 68 67
17 14 19 17 18 16 18 17 16 17 20 24 19 22 21 21 20 19 19 27 32 35 35 41 52 53 51 50 50 50 50 51 52 54 56 57 60 60 61 61 61 61 60 60 61 61 61 62 63 63 63 62 61 61 62 64 65 65 66 67 67 68 67
17 17 22 22 20 20 18 17 16 16 15 19 18 17 24 23 22 17 20 26 32 33 31 33 52 53 51 50 50 49 49 50 51 53 55 57 59 60 61 61 61 61 61 60 60 61 61 61 62 63 63 63 62 62 62 63 64 65 65 66 67 67 67
18 19 21 25 23 22 20 18 16 17 15 17 23 20 23 26 26 30 26 27 29 38 33 37 52 54 51 51 50 49 49 49 50 51 52 56 59 60 60 60 61 61 61 61 60 60 61 61 62 63 63 63 63 63 63 63 63 64 65 66 66 67 67
23 24 25 26 23 21 20 20 17 16 14 14 15 20 27 26 27 26 27 30 28 35 32 43 53 55 53 51 50 49 49 49 49 50 51 53 55 58 60 61 62 63 61 61 61 61 61 61 62 62 63 63 64 64 64 63 63 64 64 65 66 67 67
18 18 24 23 25 23 21 19 18 17 16 15 18 27 29 31 27 22 26 22 29 29 31 47 54 55 56 53 50 49 49 49 49 49 50 50 52 54 55 58 60 62 62 63 61 61 61 61 61 62 63 63 64 64 64 64 64 64 64 65 65 66 67
12 12 18 20 21 23 22 21 18 18 16 16 16 16 23 23 31 27 27 26 33 28 34 52 53 54 55 55 51 50 49 49 48 49 49 50 50 51 52 53 55 57 59 60 62 64 62 61 61 62 63 63 64 64 65 65 65 65 65 65 65 66 67
19 23 25 29 30 25 21 21 19 18 18 20 21 25 26 19 23 20 25 30 24 23 43 50 52 52 53 55 53 50 49 48 48 48 49 49 49 50 51 52 53 54 55 57 58 60 62 63 61 62 63 63 63 64 65 65 65 65 65 65 65 65 66
27 28 28 26 28 24 22 20 19 19 19 20 23 19 18 25 21 20 33 34 24 27 46 49 51 51 51 53 52 51 49 48 48 48 48 51 48 49 50 51 51 52 53 55 56 57 60 61 63 64 63 63 63 65 64 65 66 66 66 66 65 65 66
26 25 26 26 30 24 24 21 20 20 20 21 21 23 25 26 19 16 25 28 30 42 44 48 48 49 49 50 51 51 49 48 48 48 47 47 47 48 49 50 51 52 52 53 54 55 57 58 60 61 63 65 65 64 64 65 65 66 67 66 66 65 65
26 26 26 26 24 24 25 25 25 23 21 21 20 19 18 18 23 25 22 27 36 43 43 45 48 48 48 48 51 51 49 48 48 47 47 47 47 47 48 50 50 51 52 53 54 55 56 56 57 59 61 63 66 66 64 64 65 66 67 67 66 66 66
25 27 30 26 25 26 25 25 24 23 22 21 20 19 18 26 23 26 27 29 35 44 44 44 45 49 47 47 48 50 50 49 48 47 47 47 47 47 48 49 50 50 51 52 53 54 55 56 56 58 60 62 63 66 66 64 65 66 67 67 67 67 66
22 26 27 25 27 26 24 23 24 24 25 27 26 23 29 27 25 32 33 34 40 43 43 44 43 45 46 46 47 48 50 50 49 48 48 48 47 47 47 49 50 50 51 52 52 53 54 55 56 57 58 59 61 61 63 67 64 65 67 67 67 67 67
23 25 27 28 25 16 11 19 26 37 36 38 39 42 43 43 42 37 30 32 42 43 45 42 43 43 45 45 46 46 48 51 52 50 49 48 48 48 48 48 50 50 51 51 52 53 54 55 56 56 57 58 59 61 63 65 68 66 67 67 67 67 67
23 26 29 29 20 14 17 24 37 41 39 39 38 39 42 42 42 41 42 42 43 43 43 42 42 43 45 43 44 46 45 48 51 52 52 50 49 49 49 49 49 51 52 53 53 54 55 55 56 56 58 57 58 59 61 63 65 70 69 68 68 68 68
23 27 28 23 17 16 27 30 41 41 42 43 41 41 42 42 42 42 42 42 42 43 43 43 43 44 46 44 44 44 44 45 48 51 52 53 52 51 50 49 48 49 51 54 54 56 57 57 56 56 56 56 56 58 60 60 62 65 69 70 70 70 69
27 25 22 12 15 26 30 28 33 41 41 40 41 39 41 42 42 42 41 42 42 42 42 43 43 43 43 45 45 44 44 44 44 49 51 53 54 53 51 52 49 49 48 50 53 55 59 57 57 58 57 57 56 57 59 60 61 63 65 69 69 69 70
21 23 22 21 27 26 27 27 39 39 36 37 36 31 35 41 41 42 41 42 42 42 42 42 42 42 43 44 44 43 43 43 44 44 49 51 54 54 53 53 53 51 50 49 51 54 55 55 55 57 58 59 57 56 58 59 61 61 62 65 68 69 70
28 23 22 18 20 18 26 39 41 41 41 41 41 38 36 40 40 42 42 41 41 41 42 42 42 42 42 44 45 44 42 43 43 44 46 48 50 53 54 55 53 52 51 51 50 52 53 53 55 56 56 58 58 57 58 59 59 60 61 62 64 67 69
26 25 22 18 17 20 30 36 39 41 40 42 42 38 33 39 39 41 42 41 41 41 42 42 42 40 37 39 43 43 42 42 43 43 44 45 47 49 53 55 55 52 52 53 52 51 51 52 54 56 56 57 57 57 58 58 59 59 60 61 62 63 65
31 27 24 22 24 19 32 38 40 39 40 42 35 27 30 39 39 41 41 41 41 41 42 43 41 40 37 38 41 42 42 42 43 43 44 44 46 46 48 52 55 55 55 53 51 51 50 51 54 56 56 56 55 56 57 58 58 59 60 61 61 62 63
32 32 29 29 29 35 37 38 39 39 42 38 30 26 34 39 40 40 42 41 41 41 41 41 39 41 41 42 42 43 42 42 42 43 44 44 45 45 45 48 54 55 54 53 52 51 51 52 52 54 56 56 55 56 57 57 58 59 59 60 61 62 63
29 30 29 27 30 33 37 39 40 42 36 27 28 36 39 40 40 41 42 42 41 41 40 40 41 41 42 47 43 41 41 41 42 42 43 44 44 44 47 49 51 52 52 53 52 52 52 52 52 52 53 55 56 56 56 57 58 58 60 60 61 62 62
33 32 29 28 24 35 39 39 38 40 33 32 38 40 40 43 42 41 41 41 40 40 39 40 41 41 41 41 41 41 41 41 41 42 42 43 43 43 45 45 48 49 50 51 52 52 52 52 52 51 51 53 55 56 56 57 58 59 60 61 62 62 63
22 26 26 26 31 34 39 37 32 37 41 41 40 39 37 39 40 40 40 40 40 40 40 40 40 40 40 41 41 40 40 41 41 41 41 42 43 43 44 46 47 49 49 51 51 52 53 53 52 52 51 53 54 56 56 57 58 59 60 61 62 63 64
28 24 28 34 36 38 40 40 40 40 41 42 41 39 39 39 39 40 39 39 39 40 40 40 40 40 40 40 41 40 40 41 41 41 41 42 42 43 45 46 48 48 47 48 50 52 53 53 53 52 52 52 54 55 56 58 58 59 60 62 64 65 65
34 35 35 36 37 38 40 41 42 41 40 40 40 39 39 39 39 40 39 39 40 40 41 40 40 40 40 41 41 41 41 41 41 43 42 42 42 43 44 45 45 47 46 47 48 50 52 53 53 53 52 52 53 55 56 57 57 58 60 63 64 65 66
27 25 34 36 36 38 40 37 37 40 41 40 40 40 39 39 40 40 40 40 41 41 41 41 40 40 40 40 41 41 41 41 41 41 41 42 42 43 43 44 46 45 46 47 48 49 50 53 53 53 51 52 53 55 57 57 56 58 60 62 64 64 65
28 28 30 35 38 37 37 37 35 36 38 39 40 41 40 41 41 41 41 41 41 41 40 40 40 40 40 40 40 41 41 41 41 41 41 42 42 42 43 44 46 46 46 47 47 49 50 52 53 53 52 51 53 55 56 56 56 58 60 61 62 63 63
33 33 33 34 35 35 36 37 38 38 38 38 39 40 40 40 40 41 41 42 41 40 40 40 40 40 40 40 40 41 41 41 41 41 42 42 42 42 42 43 46 46 46 49 48 49 51 52 53 52 51 51 53 55 56 56 56 57 59 60 62 62 63
29 29 31 33 28 28 31 34 38 38 37 38 39 40 40 40 40 40 40 40 40 40 40 40 40 40 40 40 41 41 41 41 41 41 42 42 41 42 42 44 45 45 48 48 49 50 51 53 53 52 51 51 54 55 56 56 56 57 58 60 61 61 63
28 31 33 35 34 33 33 33 35 36 37 39 40 40 40 40 41 41 40 40 40 40 40 40 40 40 41 41 41 41 41 41 42 41 41 41 41 41 42 43 44 46 46 49 50 51 53 54 53 52 50 51 53 55 55 55 56 57 58 60 61 62 63
33 33 33 36 35 34 34 36 37 38 40 40 40 41 41 41 41 41 41 41 40 40 40 40 41 41 41 41 41 41 41 41 41 41 40 40 41 42 44 44 46 47 48 50 51 53 53 53 52 51 51 52 54 55 55 55 56 57 59 61 61 62 63
33 34 35 36 36 36 36 36 37 39 41 43 41 40 41 41 42 42 41 41 41 41 41 41 41 41 41 41 41 41 41 41 42 42 44 46 45 45 46 47 48 49 49 50 50 51 52 52 52 51 51 53 55 54 54 55 57 58 60 61 62 63 64

ECMWFFLT2_sfc_dewp_069.txt.gz
Dewpoint
16 18 19 19 18 20 21 22 21 21 23 21 28 27 24 22 21 22 37 41 44 45 43 46 51 49 49 50 50 50 52 52 54 54 54 55 55 56 57 58 61 64 64 65 64 65 64 64 64 64 66 67 68 69 69 70 71 71 72 72 72 73 73
17 19 19 19 19 18 21 20 21 23 23 22 27 18 27 20 14 30 36 36 36 38 38 46 50 49 48 49 49 49 51 52 52 52 54 55 55 56 57 59 61 63 64 64 64 64 63 64 64 64 67 67 68 68 68 69 70 71 71 71 71 72 73
16 20 18 17 18 19 17 19 20 18 20 22 30 28 19 18 16 33 36 33 32 36 41 46 49 48 48 49 49 49 49 49 50 51 52 54 55 55 56 57 60 61 62 63 65 63 63 64 65 65 65 65 65 66 67 67 68 69 69 69 70 71 71
17 19 18 19 17 17 18 19 17 17 21 32 24 25 27 24 27 31 32 34 31 39 46 47 51 51 49 49 49 48 48 48 49 50 50 52 53 54 55 56 58 61 61 62 63 63 63 63 63 63 63 63 63 64 66 66 67 69 69 69 70 70 70
18 18 18 17 17 16 16 16 17 18 20 20 22 24 24 22 29 28 32 31 32 42 51 53 52 51 49 49 48 48 48 48 48 48 49 51 52 53 55 56 57 59 62 61 61 63 63 63 63 63 62 62 62 63 64 65 67 67 67 68 69 70 70
18 18 21 19 19 18 17 16 16 16 17 21 19 22 25 25 29 30 28 30 34 44 53 53 53 50 49 48 48 48 48 48 48 48 49 50 51 52 53 54 56 57 59 60 61 62 63 63 63 63 62 62 61 62 62 65 65 66 66 67 69 70 70
19 21 23 24 22 20 19 19 18 17 17 20 27 20 23 26 27 31 32 30 35 48 51 51 50 49 48 48 48 47 47 48 48 49 49 49 50 50 51 53 54 56 58 59 60 61 63 64 64 63 62 63 66 67 69 66 65 65 65 66 67 70 70
21 22 24 25 24 22 20 19 20 19 17 17 19 27 31 27 28 30 29 32 37 47 49 49 48 48 48 48 47 47 47 47 48 49 49 50 50 50 50 52 53 55 56 58 59 59 60 62 64 64 63 65 66 70 71 70 65 71 69 67 67 69 69
21 21 23 20 23 22 20 19 21 21 20 19 19 27 33 28 24 23 28 28 28 46 48 48 47 47 46 47 47 47 47 48 47 48 49 49 51 51 50 51 52 53 54 56 58 58 60 60 59 62 66 68 69 69 69 67 65 69 65 65 66 67 68
15 14 13 17 19 22 21 21 21 21 20 21 24 26 30 26 29 32 29 31 40 47 48 47 47 46 47 47 47 47 47 48 47 48 48 49 50 50 51 51 52 53 54 54 56 57 58 57 58 59 61 64 66 69 67 66 68 69 67 65 65 66 66
19 27 27 24 29 20 18 20 19 19 22 21 23 28 27 22 27 26 30 33 40 42 44 45 46 46 46 47 47 47 47 48 48 50 49 48 49 50 50 51 52 53 54 54 55 56 55 55 56 57 58 59 61 67 67 65 66 66 67 66 66 65 66
25 25 25 25 25 20 21 18 16 17 21 22 23 22 22 31 26 22 30 42 40 40 43 45 47 46 47 47 48 47 48 48 48 49 50 51 48 49 50 50 51 52 53 53 53 54 54 54 54 56 57 58 59 61 62 64 65 65 65 66 66 66 67
24 25 24 24 26 21 21 18 17 16 20 21 20 22 23 26 24 24 29 37 41 41 42 45 46 47 47 46 48 47 48 47 48 49 48 48 48 48 48 50 51 51 52 55 54 53 54 54 54 54 55 57 58 59 61 62 62 63 65 65 65 66 67
24 25 25 25 22 23 21 20 21 21 20 21 22 21 21 21 27 25 28 37 40 41 44 45 46 47 46 47 47 47 46 45 47 45 45 45 46 47 47 49 50 51 51 52 54 55 55 55 54 54 54 55 55 57 58 59 62 63 65 67 66 66 66
24 25 26 25 25 25 21 24 24 21 21 23 24 22 22 25 24 24 31 42 41 43 45 46 46 46 45 45 44 46 46 43 43 43 43 44 44 45 46 47 48 50 51 52 52 53 54 55 55 55 55 55 55 55 57 58 60 62 63 65 67 66 66
22 24 25 24 26 22 29 34 36 34 34 34 33 37 37 26 30 31 28 36 39 43 45 45 45 45 45 44 44 44 45 43 42 41 40 42 43 44 45 46 47 46 47 50 52 52 52 53 53 54 56 55 54 55 56 57 60 61 63 64 65 69 69
22 24 27 26 25 27 22 32 33 30 31 30 36 40 38 40 41 32 26 32 42 44 45 43 44 43 44 44 44 44 45 45 43 41 41 40 42 42 44 46 47 46 46 47 50 52 53 54 53 53 53 54 56 56 57 57 60 62 64 63 66 69 70
24 24 28 28 18 4 9 33 30 33 28 29 27 28 32 39 41 41 43 43 44 44 43 43 43 43 44 44 45 44 44 44 44 43 42 41 41 41 42 44 45 47 47 47 48 50 53 54 52 53 54 53 54 55 56 58 60 62 63 65 67 67 69
22 25 28 19 6 9 32 29 33 39 36 34 32 33 38 40 43 42 42 42 42 43 42 42 43 43 43 44 44 42 42 42 43 43 43 43 42 42 43 43 43 46 47 48 49 50 52 54 53 52 52 53 53 53 54 56 57 60 61 63 66 66 67
27 22 19 11 8 27 27 29 38 41 37 38 38 34 41 42 42 43 41 41 42 42 42 41 42 42 40 43 44 43 41 41 41 42 41 43 42 42 42 43 44 45 43 46 47 49 52 52 52 52 52 53 53 53 54 54 56 58 61 62 63 64 65
21 24 20 21 30 25 32 33 36 36 34 36 32 24 37 42 42 43 42 41 41 40 40 40 40 40 40 43 44 43 41 41 41 40 41 43 44 43 43 42 42 45 45 44 46 48 48 49 51 52 53 54 53 53 54 54 57 59 59 61 62 62 62
28 23 22 21 18 15 27 36 40 40 42 41 41 36 34 42 41 42 42 41 41 40 40 41 41 40 40 40 44 44 40 40 40 41 40 41 43 43 44 44 43 43 44 44 44 45 45 46 49 50 51 52 53 54 54 53 53 56 57 58 59 60 61
26 25 18 19 16 21 34 36 39 41 40 42 44 33 27 41 42 41 41 40 41 41 40 40 41 39 37 36 41 42 40 39 39 38 40 40 40 42 42 42 41 41 44 45 45 45 44 44 46 48 49 51 52 53 54 54 53 53 55 56 57 58 59
28 24 22 20 25 24 32 37 37 37 38 41 38 20 23 40 41 41 41 40 40 41 41 40 40 39 36 38 40 39 38 38 39 40 40 40 41 41 41 41 41 44 47 46 43 41 41 45 46 46 47 49 52 53 54 53 53 53 54 55 56 57 59
30 28 24 26 27 34 37 36 39 38 42 39 27 20 38 42 42 42 42 41 40 41 40 40 38 41 41 40 40 38 39 38 38 40 40 41 40 40 40 41 46 43 42 42 41 42 43 46 45 45 46 47 49 52 54 54 54 54 54 55 56 58 60
27 29 26 25 28 33 38 41 39 42 38 24 22 39 44 42 42 42 41 40 40 40 40 39 39 39 38 39 39 38 37 38 40 40 39 39 39 40 42 44 45 43 40 42 42 41 44 43 43 44 45 47 50 52 52 53 54 54 55 56 57 58 59
31 31 28 25 18 34 40 40 40 42 31 35 42 41 42 43 41 41 41 40 40 39 38 38 38 37 36 36 37 37 38 39 39 39 40 41 40 39 41 41 40 40 41 41 41 42 42 42 43 44 44 47 49 51 51 54 54 55 55 56 57 57 59
25 27 25 22 26 39 42 36 30 39 38 42 42 40 38 42 41 40 40 41 40 38 38 37 37 37 38 39 39 39 39 39 38 38 40 41 40 40 39 38 40 41 42 44 43 43 42 44 45 45 46 47 49 50 52 53 54 56 56 56 57 57 58
30 28 32 34 38 41 41 42 40 42 44 42 42 40 38 41 41 42 40 40 40 40 38 38 39 39 40 39 38 39 39 38 38 39 40 40 40 40 41 40 43 43 42 43 43 44 43 45 46 47 47 48 49 50 51 53 54 55 56 56 57 56 57
37 36 35 37 37 39 39 40 43 41 41 41 41 41 40 40 41 41 40 40 39 39 40 39 39 40 41 41 40 39 38 38 39 41 41 41 42 42 42 42 42 43 43 43 43 43 45 45 45 48 47 47 48 50 50 52 53 55 56 57 57 57 58
29 28 40 37 36 37 39 39 41 44 44 42 42 42 41 40 41 41 41 41 41 41 41 41 41 40 40 41 42 41 41 41 41 40 41 42 42 43 43 44 45 44 45 44 45 45 45 46 45 45 47 47 49 50 51 51 52 54 56 56 57 57 58
31 30 38 39 40 40 40 38 38 38 40 43 44 43 42 41 42 41 41 43 42 42 41 42 41 40 41 41 41 41 41 41 41 41 41 42 43 44 44 45 45 45 45 45 45 46 46 47 47 47 48 48 48 49 50 51 52 54 56 56 56 56 56
34 37 37 37 38 37 38 38 40 41 40 41 43 43 42 41 42 42 43 43 42 42 42 41 42 41 41 41 41 41 39 40 40 41 42 43 43 44 44 44 45 44 45 45 46 46 45 46 47 47 48 48 48 50 51 52 53 54 55 56 56 56 55
32 32 34 39 33 30 34 39 39 40 42 42 41 42 41 41 41 42 42 42 43 43 42 42 42 42 42 42 42 42 41 41 42 43 43 44 44 42 42 43 43 44 45 46 46 46 46 47 47 48 48 48 49 49 50 51 53 54 55 55 55 56 57
30 35 39 40 37 37 36 37 40 42 43 42 42 42 41 41 41 42 42 40 40 42 43 43 42 43 42 42 41 41 41 41 42 42 43 42 41 41 42 42 43 44 44 46 46 46 47 48 47 47 48 48 49 50 51 52 51 53 54 55 55 54 56
38 40 39 41 39 36 38 40 40 40 44 42 41 41 41 41 40 41 43 42 41 41 43 43 43 41 42 41 40 41 42 41 41 41 41 41 41 42 43 44 44 44 45 46 46 46 46 47 47 48 47 47 49 48 50 51 52 53 54 54 55 55 55
37 39 40 41 40 39 40 41 41 42 44 43 40 41 42 42 42 42 42 43 44 43 43 43 42 42 42 41 41 42 40 40 41 42 44 45 43 43 43 43 44 45 45 45 46 47 46 47 47 48 47 47 48 47 50 50 51 52 53 55 55 55 55

ECMWFFLT2_sfc_dewp_072.txt.gz
Dewpoint
16 16 18 17 19 19 22 23 22 22 24 22 24 25 20 22 21 22 31 42 42 44 46 48 48 48 50 51 51 52 53 53 55 55 56 56 57 58 59 59 60 66 66 66 65 67 66 65 66 66 68 68 70 70 71 73 74 74 75 76 75 75 76
17 18 18 18 19 20 21 21 22 23 24 23 26 22 27 21 17 27 34 38 40 40 40 47 47 46 46 49 50 51 53 52 52 53 55 56 57 58 59 61 62 62 64 67 66 65 67 65 65 67 68 68 69 70 70 72 73 73 73 74 73 74 75
18 18 17 16 18 20 18 18 19 19 22 23 26 29 19 18 18 30 28 36 37 36 45 44 47 47 48 50 51 51 50 51 52 52 53 55 56 57 58 59 61 61 62 63 67 67 65 65 67 67 66 66 67 68 69 68 71 71 71 71 72 73 74
17 17 17 15 14 17 19 21 20 19 22 20 21 24 26 23 15 27 27 33 40 46 49 50 48 49 50 50 50 50 50 50 50 52 52 53 54 56 57 58 59 61 61 61 62 64 64 64 65 65 65 65 65 66 68 68 68 71 72 72 72 72 72
17 16 19 17 18 15 16 17 19 20 21 22 22 19 21 19 19 26 33 29 40 48 52 50 48 49 50 50 50 50 50 50 50 51 51 52 53 54 56 57 58 59 61 61 62 64 64 64 64 65 64 65 65 65 66 67 68 68 68 70 70 72 72
16 18 20 19 19 19 18 16 17 17 18 22 22 23 21 22 23 22 27 28 44 48 53 50 48 49 50 50 50 50 49 49 51 51 51 52 52 53 54 55 56 58 60 61 61 62 64 64 64 64 64 64 65 64 64 64 65 67 66 68 69 71 73
16 18 20 22 20 20 19 19 18 18 19 23 22 21 22 21 22 29 29 36 44 50 50 49 48 49 49 50 50 49 49 50 50 50 50 52 53 53 53 55 55 57 58 60 60 61 61 63 65 69 64 63 64 66 67 65 65 65 66 66 68 70 72
19 21 20 21 20 20 18 18 20 19 18 19 21 27 32 22 23 25 30 36 45 48 50 49 49 50 49 50 50 51 50 49 49 50 51 52 52 53 53 55 55 56 57 58 59 59 59 60 63 63 65 65 68 70 70 67 64 68 67 66 67 69 70
20 19 22 19 18 19 18 17 19 20 21 22 23 26 34 29 23 25 21 28 42 47 49 48 48 48 48 49 49 50 50 49 49 49 50 51 53 53 52 54 54 55 56 57 58 58 58 58 58 61 64 69 68 70 69 66 64 67 66 67 66 67 68
17 19 18 18 19 18 17 18 17 20 19 24 26 23 29 24 38 39 28 36 45 46 48 47 48 48 49 49 49 48 49 51 50 49 49 51 51 52 53 53 53 54 55 56 57 58 57 56 56 58 61 63 67 70 67 66 65 66 66 65 65 65 65
24 31 32 27 24 19 16 15 15 16 18 21 25 31 29 22 34 35 44 44 45 45 45 46 46 47 48 47 48 47 47 48 48 50 49 48 49 51 51 52 53 54 55 55 56 57 55 54 55 55 56 58 62 67 68 67 65 65 67 66 66 65 65
26 24 23 21 20 18 15 13 11 14 18 22 28 27 24 40 30 36 45 47 43 43 45 45 47 48 49 48 48 47 47 46 46 46 48 49 46 48 49 50 51 52 54 55 55 55 55 54 55 55 55 56 58 62 64 66 66 65 65 67 67 67 67
21 20 19 19 22 16 15 12 12 13 15 23 26 28 27 34 32 34 44 45 43 42 44 45 47 48 48 47 49 46 45 44 45 47 45 44 44 45 46 48 49 50 50 53 54 54 55 54 54 54 55 56 57 59 61 63 64 65 67 66 67 66 67
20 20 19 18 18 14 14 13 12 12 12 17 20 21 24 28 39 42 42 43 43 39 43 45 46 47 46 47 48 47 45 42 45 43 43 40 41 43 45 47 46 48 49 50 52 54 55 54 54 53 54 55 55 56 58 59 62 64 66 67 68 66 66
21 18 19 20 15 16 17 14 9 10 12 14 17 17 22 26 27 36 40 41 41 41 44 46 47 47 45 47 46 48 48 44 41 41 41 41 40 41 43 47 45 47 48 48 50 52 54 55 53 53 53 54 54 54 56 57 60 62 63 66 66 66 67
20 18 17 16 15 11 16 22 16 11 14 16 16 23 22 26 29 35 39 39 39 41 44 45 46 46 47 46 47 47 48 46 44 42 41 42 42 41 42 43 45 45 45 47 48 48 50 52 52 53 54 52 53 53 54 55 58 60 62 65 66 69 68
20 19 17 14 9 19 19 25 27 31 34 36 36 36 38 31 25 31 32 32 42 43 44 43 44 43 45 46 46 46 48 48 46 43 42 40 42 41 43 44 45 44 45 45 47 46 48 52 50 51 52 51 54 55 55 56 58 59 63 64 67 69 71
22 18 20 19 21 11 13 31 31 30 28 31 29 30 33 35 39 34 39 42 44 43 42 41 41 40 44 46 46 46 46 46 46 45 43 41 41 41 42 43 45 48 47 47 47 47 48 48 47 50 52 50 51 53 55 57 58 60 62 65 68 68 70
21 23 25 20 14 6 33 32 34 34 33 33 33 34 33 36 40 40 40 41 42 42 40 42 44 45 45 44 45 43 43 45 45 45 45 44 43 43 43 43 43 47 48 49 49 49 49 48 49 48 48 47 49 51 53 54 56 59 61 63 65 65 67
26 21 18 16 7 34 29 30 37 36 31 31 33 35 35 37 38 38 37 40 41 43 41 41 44 44 41 44 46 44 43 42 42 43 42 45 43 42 42 43 45 46 44 46 46 49 50 49 49 47 46 47 47 48 50 53 55 57 58 61 62 63 64
21 15 16 13 33 31 31 32 34 30 31 29 29 27 34 39 39 36 37 38 37 38 38 40 41 41 38 43 45 42 41 41 39 39 41 43 45 42 43 41 41 45 45 44 45 47 46 47 48 49 50 49 47 48 49 51 56 57 57 58 59 61 62
28 24 16 20 19 15 26 37 40 39 41 38 38 36 38 42 40 40 39 39 38 38 38 41 41 39 38 37 41 44 40 39 38 40 39 40 43 43 43 43 42 43 43 43 43 44 44 43 46 48 50 49 48 49 50 50 51 55 54 56 57 58 59
25 23 20 18 15 19 39 39 38 38 37 37 41 27 28 40 41 39 39 36 38 38 38 41 40 37 34 33 40 43 41 38 38 38 40 39 39 41 41 40 40 40 44 46 45 45 44 41 45 47 47 48 47 46 49 50 51 52 53 55 56 57 57
24 24 18 18 20 26 39 40 37 32 36 36 40 26 22 41 40 40 40 38 36 38 42 40 39 37 32 30 41 39 38 37 38 40 41 40 40 40 39 39 40 43 47 47 43 41 39 44 46 46 45 47 49 49 47 46 48 50 53 55 57 57 57
24 23 19 20 26 37 40 38 37 36 39 39 29 19 37 42 40 41 41 38 38 41 40 40 38 39 42 42 42 38 38 37 37 38 38 39 38 39 37 38 45 41 41 40 40 40 42 46 43 44 46 45 48 50 50 47 48 49 52 55 57 58 59
22 22 19 20 23 35 37 37 39 39 37 22 18 41 43 43 42 41 40 40 40 41 39 39 39 39 40 39 38 37 36 36 37 37 36 36 36 36 40 43 42 40 37 40 41 39 43 41 42 43 45 47 50 50 49 49 48 47 51 54 56 58 59
29 29 23 21 18 37 36 40 39 39 32 34 42 43 42 42 42 41 40 39 39 38 37 37 39 39 35 36 36 36 36 36 37 37 38 39 38 38 40 39 37 36 38 39 39 41 40 41 42 43 44 48 49 50 50 52 50 50 50 52 55 58 59
20 22 22 20 30 38 41 37 30 37 37 40 42 38 39 39 38 38 38 40 39 38 39 38 37 38 39 39 38 39 39 38 39 38 39 41 40 38 36 35 37 38 40 42 42 42 41 44 45 46 47 49 50 51 52 53 52 52 52 52 55 57 58
26 25 27 37 37 39 38 38 39 39 42 40 40 35 36 41 39 40 38 39 41 42 39 39 39 39 40 39 38 38 38 38 38 39 40 40 40 39 40 37 41 41 40 42 42 42 42 44 46 48 49 49 51 52 53 54 54 53 52 53 54 56 57
36 36 36 37 36 38 38 40 41 40 39 37 38 38 36 37 39 41 38 39 39 39 41 39 39 39 40 42 39 40 39 39 40 43 42 42 43 42 40 40 41 42 41 42 42 43 45 46 46 49 48 48 50 52 52 53 53 53 54 55 56 57 58
31 26 34 33 34 37 39 38 40 42 41 41 40 40 38 39 40 40 40 39 40 40 41 41 41 40 40 42 42 42 41 42 43 41 43 43 44 44 44 44 45 44 45 44 46 47 48 48 47 46 49 49 51 52 53 53 53 53 53 54 56 57 57
33 29 38 37 39 39 39 36 37 39 41 41 42 41 40 40 41 41 40 41 40 40 39 41 41 40 41 41 42 41 41 42 42 42 43 44 44 44 45 45 46 47 47 47 46 47 48 49 50 50 50 50 51 51 51 52 51 52 53 53 53 55 55
33 37 37 40 40 38 39 38 38 38 39 40 42 40 40 39 40 41 40 41 40 41 41 41 41 39 40 39 41 41 38 40 40 41 42 43 44 43 44 45 46 46 46 46 47 46 46 47 49 50 51 51 51 52 52 52 53 53 53 54 55 55 53
30 30 33 37 35 33 34 36 38 39 39 39 41 42 41 39 40 41 40 40 41 41 41 41 40 40 40 39 40 40 39 40 42 42 42 42 42 43 43 44 45 45 46 47 47 47 47 48 48 49 50 51 52 49 49 49 51 53 54 54 54 54 54
32 34 39 40 40 38 37 38 38 39 40 40 40 41 42 41 40 40 41 41 41 41 41 40 40 41 40 40 39 39 40 40 40 41 41 41 41 42 43 42 43 45 45 46 46 46 46 48 47 48 49 50 51 50 51 51 51 53 54 53 52 51 52
38 38 39 41 39 39 39 39 39 39 41 40 40 41 41 41 41 41 42 42 42 42 42 40 40 38 39 38 38 39 39 39 40 40 40 40 41 41 42 43 44 45 45 46 46 47 47 47 46 47 47 48 50 49 51 51 51 52 53 53 52 51 50
38 40 41 41 41 40 40 42 41 40 41 41 39 40 41 41 41 41 41 42 42 40 39 39 39 38 38 38 38 37 38 39 40 40 42 44 40 41 41 43 45 45 45 45 45 45 46 46 46 46 45 46 48 47 51 51 51 52 52 52 52 51 51

ECMWFFLT2_sfc_dewp_078.txt.gz
Dewpoint
23 24 26 26 26 22 21 20 20 21 20 19 20 22 17 17 18 18 40 40 44 46 46 46 47 47 47 48 49 53 55 60 62 61 62 63 65 65 66 68 67 68 69 69 69 70 69 70 71 71 73 71 71 73 74 75 75 74 74 75 74 74 74
17 22 25 24 25 27 23 22 22 24 22 21 24 17 23 16 12 15 37 41 42 44 44 47 46 46 47 48 47 49 52 55 57 57 58 63 64 66 67 68 69 68 69 69 69 68 69 69 71 72 72 71 72 73 73 73 73 74 73 73 73 73 74
15 18 20 21 25 26 20 19 20 18 20 21 25 24 19 15 15 14 41 41 41 43 44 45 45 45 46 47 50 49 50 52 53 55 56 57 66 64 66 68 68 68 68 69 71 70 71 71 73 71 71 72 71 72 73 71 70 73 72 73 72 73 74
12 14 15 17 16 19 20 19 17 18 19 19 23 23 25 25 19 16 42 42 41 45 45 46 45 46 47 47 49 51 51 52 53 55 55 56 61 64 66 67 67 67 67 67 71 72 71 73 73 73 71 70 70 72 73 72 72 75 75 75 74 73 74
12 12 13 13 16 17 18 17 17 17 19 18 19 17 18 20 25 19 37 40 45 49 51 50 47 49 48 50 51 52 53 54 54 55 55 57 58 61 62 62 65 66 67 68 68 70 72 72 71 71 71 71 70 72 73 73 73 74 73 73 75 75 75
12 12 13 10 10 15 16 16 17 16 17 19 19 18 15 18 21 25 31 41 47 48 49 48 48 49 49 50 51 52 53 54 55 55 56 57 57 58 59 59 59 60 63 68 70 70 70 71 71 70 73 73 72 71 70 70 71 72 72 72 72 74 76
12 11 12 9 14 15 13 12 11 16 15 17 19 19 17 15 15 18 44 44 47 50 48 48 47 49 49 49 50 51 53 54 55 55 56 57 57 57 57 58 59 59 61 62 65 65 66 68 70 71 72 73 72 73 73 73 72 73 73 71 70 74 75
14 13 13 15 15 15 15 14 14 14 15 15 16 17 22 20 19 31 38 44 47 48 49 48 48 50 49 51 50 51 53 54 55 55 56 57 57 58 58 59 59 60 60 61 62 62 63 65 69 71 72 72 72 73 73 73 73 74 74 74 74 73 71
19 14 18 15 13 13 12 11 13 14 8 13 17 20 30 26 21 25 37 43 45 48 49 49 48 48 49 50 50 51 52 54 54 54 54 55 57 58 57 58 59 59 59 60 61 62 63 63 64 67 69 70 71 73 73 73 73 73 73 73 74 74 71
18 16 17 16 15 12 13 13 12 14 15 17 18 20 30 23 30 39 39 43 48 47 48 47 47 48 50 49 50 50 51 52 53 53 53 54 54 56 57 57 57 58 58 58 59 61 63 61 61 64 66 68 70 72 72 72 72 73 73 71 72 73 72
27 28 34 28 19 12 10 10 11 11 8 14 20 24 26 23 28 34 45 46 46 46 45 46 48 48 48 49 49 48 49 51 52 53 54 53 53 54 54 55 56 57 58 57 57 58 58 60 59 60 62 63 65 68 69 72 72 70 73 72 72 72 72
27 20 24 23 22 17 12 11 12 12 14 17 18 19 21 38 27 42 48 48 45 45 46 46 47 47 49 48 49 48 49 49 49 49 52 55 52 52 52 53 54 55 56 56 56 56 56 59 60 58 59 61 63 65 67 66 64 65 65 68 70 72 72
23 20 16 18 20 17 17 11 8 7 14 18 19 22 22 26 26 39 48 49 46 45 45 46 46 47 47 45 47 46 46 46 48 49 47 47 48 50 50 51 52 53 53 54 54 54 55 55 56 61 62 58 61 64 65 66 64 65 66 66 68 69 71
17 17 17 18 16 15 16 13 15 15 14 15 15 17 19 20 33 47 47 47 47 46 47 46 46 46 45 45 47 47 45 43 46 46 45 45 46 46 47 48 48 50 51 52 53 53 55 54 53 53 54 58 57 59 59 60 62 65 66 67 68 70 71
19 17 16 15 16 16 16 15 14 14 13 13 15 14 14 16 44 38 44 47 48 49 49 47 47 47 44 44 41 45 46 43 42 43 43 44 45 45 46 48 47 48 49 49 50 51 52 51 50 52 53 54 54 56 57 58 60 61 63 70 70 68 71
19 16 15 14 13 13 14 15 14 14 13 14 16 22 22 25 35 40 45 46 47 52 48 47 46 45 46 45 45 46 47 44 44 43 43 44 45 45 45 46 46 46 46 48 49 48 47 46 46 48 54 51 50 53 56 57 58 61 63 64 66 66 66
18 16 15 13 12 13 13 14 13 14 15 15 14 18 23 24 24 43 45 43 48 48 48 46 47 45 45 46 45 45 46 47 45 43 43 43 44 44 46 47 47 45 45 46 49 47 47 51 47 46 47 47 55 55 57 57 58 60 62 64 64 64 66
19 14 13 17 17 14 15 26 28 18 13 14 14 19 23 29 28 40 47 49 49 47 46 45 45 46 47 47 48 47 47 48 47 44 43 42 43 43 44 46 48 49 47 47 48 48 48 48 45 46 50 45 47 49 54 60 61 62 63 64 63 62 64
19 18 20 18 16 15 32 27 31 31 27 19 22 27 31 34 41 46 47 47 47 46 46 46 47 47 46 46 46 45 46 47 47 46 46 44 43 44 45 45 45 47 49 50 51 51 48 48 48 47 46 44 45 47 49 48 52 61 61 64 63 60 61
24 22 21 19 18 34 30 30 33 32 31 30 30 33 34 34 38 43 46 47 48 46 45 44 47 46 45 45 45 44 43 44 44 45 44 45 42 42 42 44 46 47 43 46 47 50 52 53 50 47 47 46 45 45 43 45 49 53 58 62 61 61 60
22 20 20 20 34 30 34 31 35 28 30 32 31 30 32 34 39 42 45 46 46 44 43 45 45 45 43 44 45 42 40 39 40 41 42 44 44 41 41 40 43 46 45 43 45 46 46 48 50 50 52 50 47 47 46 44 57 57 53 57 57 61 62
23 18 16 20 26 22 25 36 34 30 36 31 31 33 33 37 37 41 43 43 42 43 42 43 43 42 43 42 43 41 39 38 38 40 40 41 43 41 40 41 41 43 43 42 42 41 41 43 46 48 50 53 48 51 49 46 44 51 49 49 50 55 59
25 23 20 19 20 24 34 35 35 37 35 38 37 29 30 38 39 40 41 42 41 40 40 41 42 40 35 37 44 42 39 37 38 38 38 37 37 38 38 39 38 38 42 43 41 41 40 42 43 44 44 49 49 49 51 49 47 46 47 50 50 51 51
22 22 19 18 22 35 39 39 34 31 32 36 30 20 20 39 37 38 40 40 38 38 39 41 40 39 35 36 42 39 39 39 40 41 40 39 37 36 36 39 37 40 44 41 39 37 38 42 41 42 43 46 50 50 50 48 48 48 50 52 52 52 52
16 22 20 16 37 40 39 35 31 28 30 27 21 19 31 39 39 39 39 41 36 39 39 39 37 44 45 43 42 39 39 38 38 37 37 38 37 37 36 39 44 39 39 39 38 37 42 45 39 41 44 44 48 51 51 50 51 50 52 53 54 56 56
17 16 18 15 36 39 38 33 33 31 31 21 17 41 44 41 41 39 37 34 35 37 38 39 41 41 41 43 41 38 36 36 38 38 38 38 37 37 41 42 42 40 38 40 40 39 41 39 41 41 44 49 51 52 50 50 51 51 53 55 55 56 56
20 22 18 16 22 41 36 36 32 32 28 38 44 43 41 42 39 39 39 38 37 34 38 38 40 38 36 37 38 38 37 36 37 39 40 41 39 40 40 40 40 40 41 41 41 41 39 40 42 43 44 48 50 51 51 53 52 53 54 55 56 56 56
18 17 18 22 36 39 39 36 32 29 41 43 44 41 38 40 40 40 40 40 38 37 38 36 38 39 40 40 39 38 37 37 38 39 42 44 43 41 41 40 42 43 44 45 43 43 42 45 45 46 48 49 51 51 53 54 53 54 54 54 56 55 56
26 28 33 35 39 39 38 39 39 42 42 43 42 41 40 40 38 41 40 40 39 39 38 38 39 39 39 38 37 36 37 37 39 42 42 43 44 44 44 42 46 45 44 44 44 45 45 48 48 50 50 50 51 52 53 55 55 54 54 54 55 55 56
33 33 35 41 39 39 37 38 43 42 42 40 38 39 38 38 40 38 38 39 37 38 39 36 37 36 40 39 36 38 39 39 42 44 44 45 46 45 44 46 46 45 44 45 45 46 47 48 48 51 50 50 52 52 52 54 54 55 55 55 55 55 55
27 25 34 36 37 38 39 38 42 43 42 40 37 38 38 40 38 36 41 42 42 41 40 38 39 39 40 41 41 41 42 42 43 42 44 45 45 46 46 46 46 46 46 45 46 46 47 48 48 48 49 50 52 53 54 52 52 55 55 55 56 56 57
27 27 32 34 37 38 38 37 39 39 38 38 37 38 35 40 42 40 41 42 42 41 40 41 39 37 38 38 41 41 43 44 44 44 44 45 45 46 46 46 46 46 46 46 46 47 48 48 49 49 50 50 52 52 52 51 51 52 54 54 53 54 53
34 32 32 35 36 37 37 37 39 40 38 39 39 38 37 38 40 41 41 39 39 38 38 40 40 38 40 40 42 41 39 42 42 43 44 44 44 45 44 45 46 46 46 46 47 46 46 47 48 49 50 50 50 51 51 51 53 52 52 53 54 52 52
37 41 42 43 35 34 34 36 37 39 40 41 42 41 39 37 40 41 41 40 40 40 40 41 41 41 43 42 43 43 42 43 43 43 43 44 43 43 43 44 44 45 46 46 46 46 47 48 48 49 49 49 49 47 48 48 50 51 52 51 51 51 51
35 46 44 46 44 41 41 40 38 38 38 38 39 42 41 39 38 38 41 41 41 41 41 40 40 42 41 42 42 42 42 42 43 43 42 42 41 42 42 42 43 44 45 45 45 46 47 47 46 47 48 47 48 46 49 49 48 51 52 51 50 49 51
43 43 43 45 46 46 48 43 44 42 42 40 37 38 42 41 39 39 41 40 41 42 41 40 40 39 41 40 39 40 41 40 41 41 40 40 40 40 40 43 44 43 44 44 44 45 46 46 45 46 45 46 48 46 47 48 48 51 50 50 49 48 48
43 43 44 45 45 44 45 45 44 44 44 42 39 39 39 40 39 39 41 43 41 41 41 42 41 40 40 39 39 40 40 40 40 40 42 43 39 39 39 39 42 44 44 44 45 45 45 46 46 46 45 45 46 45 48 47 47 49 51 49 48 48 48

ECMWFFLT2_sfc_dewp_084.txt.gz
Dewpoint
21 20 26 29 24 21 27 23 23 27 28 31 32 36 28 31 40 42 46 47 50 52 51 54 59 56 56 57 59 60 60 62 63 63 63 64 65 66 67 68 68 68 67 68 68 69 68 65 64 66 67 68 68 68 68 68 68 70 71 70 70 71 71
23 22 25 24 25 25 26 22 22 26 28 30 28 22 30 26 35 42 45 46 47 47 45 53 57 57 58 59 59 60 61 61 62 63 63 65 67 68 69 68 68 69 69 69 70 70 69 69 65 65 67 68 69 69 69 69 69 70 71 71 70 71 71
25 28 23 23 25 28 24 23 27 29 25 24 29 27 21 26 39 41 44 45 46 47 47 53 55 56 57 58 58 57 57 59 63 64 64 65 66 66 67 68 69 69 69 68 68 68 70 70 70 68 68 69 70 70 70 70 70 70 71 71 71 71 71
23 20 22 22 23 25 27 27 21 26 30 31 26 24 30 34 38 41 42 44 43 50 51 53 56 57 58 56 54 55 58 61 63 63 63 64 64 65 66 68 68 69 70 69 69 69 70 70 70 70 70 69 70 71 71 71 71 71 72 72 72 72 72
20 20 23 20 24 22 24 24 21 21 26 26 22 28 25 34 40 40 41 39 42 50 54 55 55 56 57 57 54 56 58 59 59 60 62 63 64 65 66 68 68 69 70 70 69 70 70 71 72 71 71 71 72 73 72 72 71 71 72 72 73 72 73
17 12 19 19 22 23 22 23 22 20 20 23 20 20 29 36 40 38 40 38 45 52 56 55 55 56 57 54 55 55 56 57 57 57 57 58 59 62 67 68 68 68 69 70 71 71 71 72 72 71 72 72 72 72 73 73 72 73 72 73 73 72 71
18 16 17 20 17 15 15 18 17 26 21 25 25 19 23 42 42 44 43 43 45 53 57 56 55 55 55 55 55 55 56 56 57 57 57 57 57 58 59 63 66 68 69 69 69 71 71 71 71 72 72 71 71 72 72 72 71 72 72 71 71 71 72
32 21 21 24 22 16 14 15 18 14 14 19 23 27 29 43 43 43 43 43 48 53 58 57 56 56 55 55 55 55 55 55 56 57 56 56 56 57 57 59 61 64 68 68 69 69 70 70 70 71 72 72 72 72 71 71 71 71 72 72 72 71 71
30 24 26 28 28 23 19 16 16 18 17 20 26 34 42 42 43 45 42 41 47 53 56 56 55 55 55 54 54 54 54 55 56 56 56 56 56 56 56 57 58 60 63 65 67 68 68 69 71 70 70 71 71 72 72 71 71 72 72 71 72 71 71
25 25 23 26 35 25 27 21 15 15 14 18 28 30 39 36 43 46 45 46 51 54 55 54 54 54 54 54 54 54 54 55 55 55 55 55 55 55 55 55 57 58 59 59 60 62 65 67 67 67 67 68 68 70 71 71 72 72 71 72 72 71 71
30 31 32 35 43 26 16 16 15 14 14 26 34 38 38 37 43 44 45 48 50 51 52 52 52 53 53 53 53 53 54 54 55 55 55 55 54 54 53 54 55 57 58 59 60 60 60 62 66 67 67 67 68 68 69 70 71 71 71 71 72 72 70
35 35 36 28 27 20 18 15 15 15 15 23 35 38 38 44 44 39 47 49 48 49 51 52 52 53 53 54 53 53 53 53 53 54 55 55 52 52 52 52 53 55 56 57 59 60 61 61 61 61 62 65 66 67 68 69 70 70 72 72 72 72 72
23 22 22 22 27 18 17 17 20 24 16 17 28 43 45 46 41 42 48 49 48 49 51 51 52 53 53 53 53 53 53 53 52 52 52 51 51 51 50 51 52 53 54 56 57 58 59 60 60 60 60 60 62 65 66 69 70 71 72 71 70 71 72
23 25 22 20 17 17 17 26 26 26 22 18 30 34 45 42 44 48 49 49 49 50 50 51 52 53 53 53 54 54 53 52 52 51 50 50 49 49 48 48 50 52 53 54 56 57 59 59 59 60 60 61 62 64 67 69 69 70 71 70 70 70 71
26 24 23 19 18 17 21 27 28 28 26 24 46 48 48 49 48 49 48 48 48 52 55 51 52 52 51 52 53 53 53 52 51 49 49 48 47 47 47 48 48 49 50 51 53 55 57 58 60 61 62 62 64 65 66 66 66 67 68 69 69 70 70
25 24 23 22 20 22 26 27 28 29 28 23 25 46 48 47 47 48 48 47 48 51 54 55 51 49 50 50 50 50 50 48 48 47 48 48 47 47 46 47 47 46 46 47 48 50 52 54 57 59 59 60 61 62 62 62 63 64 66 65 66 66 67
31 25 25 24 25 24 23 27 28 30 35 36 31 44 50 48 48 47 46 46 49 52 52 51 49 48 48 46 46 46 46 46 45 45 45 45 46 46 47 48 48 47 46 46 47 46 50 54 55 57 57 57 59 62 62 60 61 61 61 61 63 63 65
27 29 27 32 27 19 25 32 32 37 39 40 44 46 47 47 47 47 48 48 51 51 49 46 46 46 45 45 46 46 46 46 46 46 45 45 45 46 47 48 49 49 48 48 48 48 48 48 51 56 56 53 55 61 63 61 59 60 59 58 59 60 62
24 27 31 27 20 24 36 34 36 36 40 45 47 48 48 48 47 48 47 48 48 47 45 45 45 45 45 45 45 45 46 46 46 46 45 44 44 45 45 46 48 51 52 51 51 50 50 52 50 51 53 54 56 58 60 61 60 60 59 58 58 58 59
29 26 25 18 22 34 40 38 40 44 35 38 46 46 46 47 47 47 47 47 46 46 45 45 45 44 44 44 45 45 45 46 46 46 45 45 45 44 44 45 47 48 49 50 50 53 57 54 53 52 51 49 49 55 60 62 61 61 62 61 61 61 61
22 25 25 23 34 32 35 38 37 37 35 36 42 43 44 49 48 48 48 48 47 47 48 49 49 47 44 43 43 43 43 44 45 45 45 45 44 43 43 42 43 46 49 49 50 47 46 50 54 54 54 53 51 50 51 53 55 55 55 57 58 60 59
29 24 24 25 26 21 30 39 42 37 43 40 43 43 43 47 52 53 48 47 48 49 50 50 52 49 45 43 43 42 41 42 44 45 44 44 44 44 44 43 43 43 43 43 45 44 46 48 51 54 53 53 52 52 52 52 52 54 53 53 53 55 54
27 28 22 20 18 25 35 39 41 34 30 44 46 40 39 46 51 52 53 50 49 49 49 50 49 48 47 47 44 43 40 40 41 41 40 39 40 41 41 42 42 44 46 45 45 46 46 48 51 52 53 54 53 53 53 52 53 53 54 56 56 56 54
31 26 21 18 31 30 36 43 38 31 32 43 32 25 31 40 48 50 49 50 49 50 51 51 50 48 44 44 42 42 41 39 38 37 37 38 40 42 43 43 44 45 46 44 44 44 45 47 51 52 52 54 57 55 53 52 52 53 54 56 57 56 56
27 28 22 24 33 41 44 38 38 30 43 33 24 23 30 41 46 49 52 53 53 52 50 49 48 49 47 43 41 39 38 37 38 38 39 40 42 43 45 48 51 44 44 44 44 46 47 48 48 52 54 54 54 56 54 53 53 53 54 55 56 56 56
17 24 16 17 28 38 40 38 41 37 31 19 21 32 43 46 44 46 48 49 51 50 49 47 44 45 42 41 38 38 37 37 38 39 43 45 47 49 52 52 49 45 46 46 47 48 49 50 51 52 54 55 55 53 52 53 54 54 55 55 55 55 56
26 23 19 19 17 34 42 38 35 39 27 25 37 42 42 45 42 47 48 49 49 46 42 41 41 39 38 38 38 39 39 39 40 42 43 43 44 44 45 47 50 47 47 47 48 48 49 50 50 51 54 55 54 52 51 53 54 54 56 55 55 55 56
22 25 22 21 28 38 45 38 30 35 41 42 47 42 38 40 41 44 46 47 45 41 39 38 38 38 39 40 40 41 42 42 43 43 44 45 45 45 45 47 48 52 48 48 48 48 49 51 51 51 52 55 55 53 51 53 54 54 54 55 55 56 57
30 29 31 35 38 41 44 46 43 44 45 45 44 42 40 38 38 41 41 41 41 37 37 37 37 38 39 40 41 41 42 43 43 44 44 45 45 45 46 47 49 48 47 47 48 48 47 49 51 52 51 53 53 51 50 55 55 53 55 56 56 56 56
37 38 39 42 41 42 42 45 46 41 42 45 43 40 39 41 40 40 40 41 40 40 38 37 38 38 39 41 41 42 43 44 45 47 45 45 46 46 46 46 47 47 47 48 48 49 48 49 49 52 52 52 51 50 52 54 53 53 54 56 55 55 53
29 24 38 39 39 42 43 41 42 42 42 44 45 42 42 43 39 39 41 42 42 40 40 39 38 39 41 42 43 44 45 45 44 44 44 44 44 45 46 49 49 47 48 48 48 50 49 49 49 51 50 52 52 53 54 53 53 53 54 56 55 53 51
31 31 38 42 44 43 45 43 41 39 38 41 45 44 45 45 44 41 41 42 44 42 43 44 43 42 42 43 44 44 44 45 45 45 44 44 44 45 47 49 48 47 47 47 48 50 49 47 49 51 51 50 51 50 51 52 51 52 54 55 53 51 50
39 39 41 44 41 40 44 45 45 46 45 40 42 43 42 42 41 42 43 41 40 41 42 42 43 42 41 42 43 44 45 45 45 45 45 44 44 45 46 48 48 46 47 48 48 50 49 48 49 49 48 49 49 48 49 50 50 51 52 53 54 51 50
34 34 36 42 33 33 40 44 45 46 46 46 40 42 42 41 40 40 40 42 42 41 42 42 41 40 41 42 45 45 44 44 43 44 44 44 44 45 46 48 47 48 49 48 49 49 47 48 48 48 48 48 48 48 48 48 49 50 53 53 52 51 51
34 41 43 44 42 41 43 46 46 47 48 46 45 43 41 42 41 40 39 40 41 41 42 44 43 42 44 44 44 43 43 42 43 44 43 43 45 45 46 45 45 47 48 51 50 49 47 49 49 48 47 47 47 48 48 49 50 50 50 52 52 50 52
42 44 45 46 42 41 43 46 47 48 48 48 47 47 48 47 46 43 40 38 40 42 42 44 44 44 43 43 42 41 41 42 44 43 43 43 42 44 45 44 46 46 47 47 47 48 47 47 47 47 47 47 47 48 49 49 50 49 50 51 50 50 50
41 45 46 47 46 46 47 48 48 49 51 50 46 46 49 48 49 48 46 43 42 42 42 43 43 43 42 42 42 41 42 44 44 44 46 46 44 43 45 45 45 46 46 45 46 46 46 46 47 50 47 47 49 49 49 49 49 50 50 51 49 49 49

ECMWFFLT2_sfc_dewp_087.txt.gz
Dewpoint
24 24 28 28 22 16 23 24 21 26 30 34 35 39 34 42 43 42 45 46 49 51 52 54 57 57 58 59 61 61 62 63 63 63 65 66 66 67 67 67 67 68 67 65 61 60 60 61 61 61 63 65 66 66 67 67 68 68 69 69 70 70 70
24 23 26 25 26 25 24 21 22 28 31 30 27 24 32 36 38 41 45 45 45 45 45 53 57 57 58 59 60 61 62 63 63 64 65 66 67 67 68 67 68 69 68 67 67 64 62 61 61 61 63 66 66 66 67 67 68 68 68 69 69 70 70
21 25 24 22 26 27 23 22 27 20 25 23 30 29 31 35 39 40 43 45 45 45 46 52 56 56 56 57 59 60 62 63 63 63 64 66 67 67 67 68 68 69 68 68 68 67 67 66 64 63 64 66 67 66 67 67 67 69 69 69 69 70 70
22 24 23 21 22 23 28 25 20 30 29 31 25 25 27 41 40 41 41 43 42 47 49 55 55 56 57 59 60 61 62 62 63 63 64 65 65 66 67 67 68 69 70 70 69 68 68 68 68 68 68 67 67 67 68 68 68 69 70 70 71 70 71
22 22 25 21 23 21 23 23 23 22 28 28 23 27 34 41 41 41 42 41 43 47 53 55 56 56 58 59 58 58 59 61 62 63 64 65 65 66 66 67 68 69 70 70 70 71 70 70 71 70 70 71 72 72 71 71 70 71 72 72 72 72 72
16 14 19 23 24 23 19 21 20 20 20 21 20 21 29 43 42 39 41 38 41 49 57 56 56 57 57 58 57 57 57 57 59 61 63 64 64 66 67 68 69 70 70 70 71 71 71 71 71 70 72 72 71 71 71 71 71 71 72 72 71 72 71
21 21 23 27 23 21 20 15 13 21 23 25 25 20 28 42 44 45 42 42 43 53 57 57 56 55 56 57 57 56 56 57 57 58 60 61 62 64 67 68 68 69 69 70 70 71 70 71 71 71 70 70 71 71 71 71 71 71 72 72 72 72 71
35 26 23 27 27 17 15 16 18 14 13 15 21 26 30 43 43 42 41 42 46 53 57 56 56 56 56 56 56 56 56 57 57 58 58 58 58 59 61 63 66 68 67 68 68 68 69 70 70 71 70 70 70 70 71 71 71 71 72 72 72 72 72
30 26 23 23 25 26 26 21 19 19 19 28 31 39 43 42 43 43 40 40 46 51 56 56 55 55 55 55 56 56 56 56 56 56 56 57 57 58 59 60 62 65 66 66 67 67 68 69 70 70 69 69 69 70 70 71 71 71 71 72 71 72 72
20 19 20 22 26 23 29 26 19 21 16 26 29 35 39 35 42 43 43 45 50 54 55 54 54 54 54 55 55 56 56 56 55 55 55 55 56 57 58 59 59 61 62 62 63 64 66 67 68 69 70 70 70 69 70 71 70 71 71 72 72 71 72
27 28 30 32 42 23 19 19 25 25 19 33 35 39 38 36 41 42 43 47 50 52 53 53 54 54 53 54 55 55 55 55 55 54 54 54 55 56 57 58 58 59 59 60 62 63 63 65 67 68 68 70 70 70 70 70 70 71 71 72 71 71 71
32 31 34 30 36 23 25 27 26 26 25 25 39 31 29 43 43 38 44 50 50 51 53 53 53 53 53 54 54 54 54 54 53 53 54 54 53 54 55 56 56 56 57 58 59 61 62 63 64 65 67 69 69 69 70 70 70 71 71 71 71 70 71
26 23 22 21 29 28 31 29 28 28 29 33 41 42 42 44 39 38 46 50 49 51 53 53 53 53 53 54 54 54 54 54 53 52 51 50 51 52 53 54 55 56 56 57 58 60 61 63 63 63 65 66 68 69 70 70 71 71 71 71 70 70 70
24 25 23 22 24 28 29 30 30 29 35 46 44 46 47 44 42 45 50 50 49 51 52 53 53 54 53 53 53 53 53 52 52 50 49 49 49 50 52 53 54 54 55 56 58 59 60 62 63 64 65 66 68 69 70 70 70 71 71 71 71 71 71
27 25 26 23 26 30 31 31 30 31 31 44 47 48 49 50 49 50 50 49 49 50 53 53 54 54 53 53 52 52 52 51 51 49 48 47 47 48 49 50 51 52 53 54 56 58 59 61 63 63 64 65 66 67 68 69 69 70 71 70 70 71 71
26 24 25 24 26 28 31 31 30 32 32 30 37 45 48 48 47 48 48 48 47 51 54 54 53 53 53 52 51 51 51 50 49 47 47 47 46 46 47 47 48 49 50 52 54 55 56 58 60 62 63 64 64 63 63 65 67 70 69 69 69 69 70
30 27 27 27 28 27 29 30 29 31 33 37 42 49 51 49 49 48 47 47 50 52 54 52 52 53 53 52 51 50 50 49 48 47 47 47 47 46 47 48 48 46 47 50 52 53 54 56 56 59 62 63 62 61 61 60 62 64 65 66 67 67 68
31 31 29 31 28 25 27 32 33 37 41 46 46 46 48 48 49 47 49 50 52 52 52 51 51 52 52 52 50 49 49 48 48 47 47 47 47 47 47 47 47 48 49 49 49 51 52 53 55 58 61 62 61 60 59 59 59 60 61 62 62 63 64
34 37 32 26 22 28 36 35 39 37 43 46 46 46 47 48 50 50 50 51 51 51 51 50 49 48 47 47 46 47 47 47 46 46 47 47 47 47 47 47 48 49 49 50 51 51 52 54 55 55 55 58 60 60 59 58 59 60 60 60 60 60 61
30 36 33 23 22 34 35 36 41 42 37 37 45 45 46 48 49 50 50 50 47 46 45 45 46 46 46 46 47 46 46 46 46 46 46 47 46 45 47 49 49 49 48 49 50 54 57 55 54 52 52 55 58 58 59 61 60 58 57 56 55 55 55
18 27 31 27 38 33 35 36 37 35 31 31 39 40 44 47 50 50 48 45 45 44 44 45 44 45 44 44 45 46 45 45 45 45 45 44 43 43 45 46 47 47 46 48 51 53 53 54 53 54 54 53 52 52 52 53 55 54 54 55 55 55 55
29 24 23 26 28 26 33 40 41 42 42 39 39 45 43 47 50 51 45 45 44 44 44 44 44 45 43 42 43 45 45 45 44 44 43 43 44 43 43 44 44 46 47 49 51 50 51 52 53 54 54 54 53 53 53 53 54 55 55 55 56 56 55
25 25 22 20 22 27 36 37 39 38 33 36 44 43 40 45 50 51 49 48 47 44 43 43 44 44 43 43 43 43 44 43 42 41 41 41 42 43 44 45 46 47 48 49 49 49 50 51 53 54 54 53 53 53 54 53 53 53 54 55 55 55 55
29 24 20 18 26 31 38 41 39 32 32 41 36 33 34 42 49 51 49 50 50 51 52 51 47 43 42 42 42 43 44 42 40 39 40 41 42 43 44 45 46 48 50 48 48 49 50 52 54 54 55 55 56 54 53 52 52 53 54 55 55 55 56
31 29 18 20 24 38 43 41 37 35 40 32 24 22 30 41 49 51 50 50 51 51 51 51 48 49 47 44 43 42 40 38 39 41 42 42 43 44 46 49 53 48 48 48 49 50 52 53 54 54 53 53 53 55 53 52 53 53 54 54 54 55 56
18 22 13 16 22 31 38 40 41 41 31 20 20 30 38 43 47 50 51 50 50 50 51 52 53 54 53 51 46 47 42 39 41 43 44 46 48 49 52 52 50 48 48 48 49 49 51 53 54 53 52 53 53 52 51 51 52 53 54 54 54 55 56
27 25 22 19 13 30 40 41 35 39 25 23 31 38 41 45 44 49 50 50 50 50 50 51 53 53 50 43 40 38 40 43 44 45 44 45 46 47 48 49 51 48 47 48 48 49 49 51 52 53 52 53 52 51 50 52 53 53 55 55 55 56 56
21 24 19 22 27 31 41 38 31 36 38 39 43 39 38 41 45 49 50 50 50 50 48 46 44 44 42 42 39 40 42 43 43 44 44 45 46 47 47 48 49 51 48 48 48 49 50 51 51 52 53 53 53 52 48 52 54 54 54 55 55 54 54
28 26 30 33 36 37 40 43 41 41 43 46 48 41 39 41 41 45 49 49 45 44 45 41 40 39 39 38 40 41 42 43 43 44 44 45 46 46 47 48 51 48 46 46 47 47 48 49 51 51 52 52 52 50 50 54 54 52 54 56 54 51 51
35 37 37 40 40 41 43 42 44 42 42 43 42 40 39 41 41 44 45 47 48 48 49 47 48 45 42 40 41 42 43 44 45 47 46 47 47 47 47 48 48 48 47 47 46 47 47 49 50 52 51 50 50 50 52 53 52 53 55 54 54 52 51
29 24 33 39 40 42 43 43 43 43 43 44 44 41 40 41 42 44 47 48 49 49 51 49 49 50 51 46 44 43 44 45 45 44 45 45 45 45 46 48 48 46 47 47 48 49 48 48 50 50 48 49 50 50 51 50 51 53 53 54 54 51 50
30 30 36 39 43 43 44 44 43 43 44 43 44 45 44 42 43 43 43 44 44 45 46 47 47 48 50 50 47 45 46 45 44 44 44 45 45 46 48 48 47 46 46 47 48 48 48 47 48 48 47 48 48 48 49 50 50 52 54 54 51 49 50
37 38 37 40 37 39 42 44 44 45 46 44 42 43 41 41 41 41 42 42 41 41 42 44 46 47 47 46 45 45 45 44 44 44 44 44 45 47 47 47 46 44 46 48 49 49 48 47 46 47 47 48 48 47 48 49 50 52 53 53 52 49 50
33 33 35 39 33 32 38 41 44 45 46 44 44 44 42 42 40 41 40 41 43 43 43 43 44 43 44 45 45 45 45 45 44 44 44 44 45 46 46 47 45 47 48 48 49 48 46 46 47 47 46 46 47 48 49 49 50 52 52 52 49 49 50
33 38 39 40 38 38 41 42 44 46 47 45 45 45 45 45 45 44 41 40 41 42 43 43 44 44 45 45 45 45 45 45 44 44 44 44 44 45 46 45 46 47 48 50 48 48 47 49 48 48 46 46 46 48 48 49 50 50 50 50 50 49 51
40 41 42 43 40 40 41 44 47 47 47 46 46 46 47 47 47 45 43 42 41 41 42 43 43 43 44 45 45 44 44 44 44 43 43 44 44 46 46 46 48 48 47 47 46 47 46 48 47 46 47 46 47 48 49 49 49 48 49 50 48 48 49
39 43 44 45 43 43 44 45 46 48 49 48 47 45 47 47 47 46 45 44 44 42 42 42 43 44 44 45 44 43 43 43 44 44 46 47 46 45 45 46 46 45 45 44 44 45 46 45 45 49 46 47 48 48 48 49 49 49 49 50 47 47 47

ECMWFFLT2_sfc_dewp_093.txt.gz
Dewpoint
22 21 22 20 19 18 19 33 31 32 45 40 42 42 40 42 40 41 48 45 46 49 51 57 58 55 55 56 58 60 62 64 65 65 64 63 64 65 65 62 61 63 63 63 64 64 64 65 66 67 69 70 71 71 71 72 73 73 73 74 73 73 74
22 23 21 20 19 23 25 25 30 36 36 37 38 31 40 38 34 39 44 39 43 42 39 57 57 56 56 57 58 60 62 63 64 64 65 66 66 66 67 65 63 63 63 64 64 64 65 65 65 67 70 70 71 71 71 72 72 73 72 72 72 72 73
23 25 20 19 21 25 18 17 38 29 34 31 37 38 34 35 33 35 41 44 44 45 43 53 56 56 56 58 59 60 61 62 62 64 66 66 67 67 67 66 64 63 63 63 64 65 66 67 67 68 69 70 70 71 71 72 72 71 71 70 71 72 72
22 23 21 21 18 23 24 29 31 26 30 34 34 30 38 33 34 34 37 43 41 48 46 51 56 58 58 58 59 59 61 61 62 63 66 66 66 67 69 69 67 65 63 64 64 65 66 67 67 67 68 67 67 69 70 71 72 72 71 71 72 72 71
22 22 23 20 20 20 20 23 26 23 27 28 32 37 37 32 38 34 32 36 40 49 53 58 58 59 59 59 59 60 61 61 62 63 65 66 66 66 66 68 69 69 69 67 65 66 66 66 67 67 67 67 68 68 69 71 71 70 70 70 72 72 71
20 21 22 22 21 21 20 20 24 21 25 28 25 29 39 41 35 36 34 31 44 48 55 56 57 59 60 60 60 61 61 61 62 63 63 66 65 66 67 68 68 68 69 70 70 66 65 65 67 67 66 68 69 68 68 69 68 70 71 71 73 73 73
20 22 26 29 26 23 22 20 20 22 23 28 23 25 35 41 43 42 43 35 45 53 55 57 58 60 61 61 61 61 62 62 63 63 63 65 66 67 69 69 70 71 72 72 70 68 67 66 68 68 68 68 69 70 70 70 70 72 72 73 73 74 74
23 22 23 23 22 18 18 19 20 21 21 24 21 23 39 34 43 39 39 35 47 54 58 58 59 61 61 62 62 62 62 63 63 63 64 65 66 68 69 69 71 71 71 72 71 70 70 70 69 68 69 70 71 72 72 72 71 73 74 74 74 74 74
21 19 22 19 25 25 24 21 26 26 23 28 36 44 47 37 42 41 33 29 44 54 57 58 58 59 60 61 61 62 62 62 63 63 64 65 66 66 67 68 69 70 70 70 70 70 70 70 69 70 71 72 72 72 72 71 72 73 73 75 75 74 74
18 20 19 22 26 27 28 30 32 31 36 40 37 33 43 34 47 47 38 37 51 54 57 57 58 59 60 60 60 61 61 62 62 62 64 65 66 66 67 67 67 68 68 68 69 70 70 71 70 72 72 72 71 72 72 73 72 73 73 74 74 74 74
28 27 31 28 33 31 29 32 37 37 33 35 41 46 41 29 47 44 46 46 51 52 54 56 57 58 58 58 59 59 59 60 61 62 63 63 64 64 64 65 65 66 67 68 69 69 70 70 71 71 72 72 72 72 73 73 73 74 74 74 73 72 72
28 27 29 28 35 34 35 37 38 41 43 39 41 34 29 51 44 40 51 52 50 51 53 55 57 57 57 58 58 58 59 59 60 60 61 62 62 62 63 64 65 66 67 67 68 68 69 70 71 70 70 71 71 72 73 73 73 73 72 72 72 73 73
28 27 26 30 34 34 37 39 40 40 44 42 37 43 43 48 36 32 50 53 51 52 53 55 57 57 57 57 58 58 58 59 60 61 61 61 61 62 63 64 65 65 66 64 65 66 67 69 70 70 70 70 71 71 72 72 72 72 72 72 72 72 73
27 29 27 28 33 33 37 39 41 42 43 46 47 46 47 47 50 50 49 54 53 53 53 55 57 58 58 58 58 58 58 59 60 60 60 60 60 61 61 62 62 63 63 63 64 65 66 67 67 68 69 70 70 70 70 71 72 72 73 72 72 72 71
28 29 31 29 31 32 33 35 39 41 44 44 46 47 49 50 51 49 51 53 52 54 55 56 57 58 57 56 57 58 58 59 59 59 59 59 59 59 60 61 60 62 63 63 64 65 66 66 67 68 68 69 69 70 70 70 71 71 71 70 70 70 70
29 28 30 29 32 32 30 31 34 39 43 44 46 48 49 49 50 52 51 51 51 55 57 57 56 56 56 56 56 56 58 58 59 59 58 57 58 58 58 59 61 62 62 63 63 64 64 64 65 66 67 67 68 68 69 70 70 71 71 70 70 70 70
33 29 32 31 33 30 28 30 29 36 38 47 46 48 49 49 50 49 48 49 52 55 56 56 56 55 55 55 56 55 56 58 58 58 58 58 58 57 58 59 59 60 60 61 61 62 62 63 63 64 64 65 65 66 67 68 69 70 70 70 70 70 71
38 31 35 36 32 28 30 30 32 37 32 42 47 47 48 49 50 49 51 51 54 55 56 55 55 55 54 54 54 55 56 55 55 56 56 56 57 57 57 57 57 58 60 61 61 60 60 61 61 62 63 63 62 62 61 62 64 64 65 66 66 67 68
38 41 36 28 28 29 34 33 34 35 32 30 47 48 48 49 51 52 52 52 54 55 56 55 55 55 53 52 52 51 52 55 54 54 53 54 55 56 56 56 55 59 60 60 60 60 59 59 57 57 57 57 57 57 58 59 60 62 62 62 63 62 63
35 40 37 27 28 36 36 34 38 39 32 30 43 46 47 49 50 51 51 53 54 55 54 55 55 53 50 49 50 50 50 52 53 53 52 53 53 55 55 55 57 58 57 59 59 59 58 57 56 55 55 55 55 55 56 57 58 59 60 61 61 61 60
31 33 35 31 39 34 35 36 37 36 36 34 36 41 44 49 49 50 52 53 54 53 53 52 50 50 50 49 48 47 48 49 49 50 50 51 52 52 53 53 55 57 57 57 56 57 56 56 56 56 57 55 54 54 56 55 58 58 57 58 59 60 60
36 30 28 29 28 28 32 36 38 41 42 39 35 38 43 50 49 49 53 53 53 52 51 51 51 51 51 49 49 47 47 48 47 48 48 49 51 51 52 54 55 56 56 56 55 54 54 55 56 56 57 57 57 57 56 57 56 57 56 56 57 58 59
30 32 28 28 27 33 37 38 39 40 40 41 38 40 34 47 50 49 51 53 52 52 51 50 52 52 51 50 50 47 47 46 46 46 47 47 49 51 52 53 53 55 56 55 54 54 54 54 56 56 55 56 56 55 56 57 57 57 58 57 56 56 57
30 30 28 27 31 34 38 40 40 39 41 39 39 26 26 44 48 48 50 52 52 52 52 52 53 52 50 50 49 47 46 48 49 50 48 49 50 50 51 53 55 57 58 56 54 53 53 54 53 54 54 54 55 55 54 52 53 54 56 59 58 56 56
25 27 26 31 34 36 40 40 41 41 45 37 32 28 34 42 47 49 50 51 53 53 52 52 53 55 58 57 55 49 54 54 53 54 53 52 50 50 51 54 57 55 55 53 53 52 54 54 53 54 54 54 54 56 55 54 54 54 56 57 58 59 57
22 22 21 21 25 34 39 42 45 47 38 29 30 39 45 45 46 51 49 49 50 51 52 53 52 54 56 55 50 51 53 53 50 50 48 49 51 52 55 56 55 53 53 54 53 52 54 53 53 53 54 55 55 55 53 53 53 54 56 56 57 56 56
28 27 22 21 23 36 40 44 43 45 36 37 41 44 46 46 44 50 50 50 50 50 50 49 51 52 52 53 50 50 50 50 49 50 50 52 51 52 53 53 53 52 52 51 51 51 50 51 51 51 53 55 55 54 54 54 54 55 55 55 55 55 56
24 21 20 22 35 40 44 44 38 43 44 45 47 45 43 47 45 48 51 51 51 50 50 48 49 50 51 49 48 48 48 48 51 51 52 52 52 51 50 50 51 51 52 52 51 52 52 54 54 54 55 55 55 54 55 56 54 54 54 55 55 55 55
33 30 33 38 42 43 44 45 45 45 46 46 47 47 44 45 46 48 50 52 52 52 50 49 49 49 49 46 46 46 47 50 48 50 51 51 51 50 51 50 52 51 51 51 50 50 51 53 54 56 55 54 54 54 56 57 56 54 53 53 53 53 53
40 40 41 42 43 44 45 45 47 46 46 45 46 45 44 46 46 47 52 53 52 52 51 49 49 48 47 45 43 46 47 48 50 52 51 52 53 52 51 51 52 51 50 49 49 49 50 51 52 54 53 53 54 55 56 56 55 56 55 54 54 54 54
34 32 41 44 44 45 46 46 46 48 48 46 46 47 47 47 47 51 53 53 54 52 52 51 50 48 47 47 46 47 48 50 51 50 51 52 52 51 51 53 52 51 50 49 49 49 49 49 48 49 52 53 55 56 55 53 54 55 54 54 54 54 54
34 37 41 43 44 46 46 46 45 44 45 46 47 47 46 48 49 51 52 52 53 52 50 51 50 48 48 49 50 50 51 51 51 51 52 52 52 53 53 53 54 54 53 52 51 50 51 51 51 50 51 51 53 53 52 51 51 53 53 51 50 51 50
40 41 42 42 44 43 44 45 46 47 46 47 48 47 46 44 46 48 49 49 51 51 51 51 50 48 48 48 49 48 51 52 52 53 53 53 53 53 52 52 53 53 53 51 51 49 49 50 51 51 52 52 52 53 53 53 53 52 51 51 51 48 48
36 35 39 44 37 37 41 43 45 47 48 49 49 49 46 45 45 47 47 48 49 50 50 51 50 50 50 50 50 50 50 51 52 53 53 53 53 53 53 54 53 54 54 53 52 51 51 52 51 51 51 51 51 48 49 50 51 52 51 50 49 49 49
33 39 45 48 46 46 45 45 45 47 49 49 48 48 48 48 46 47 47 47 48 49 50 49 49 51 50 50 50 51 51 51 52 53 53 52 52 52 52 51 52 54 53 53 53 52 51 52 50 51 52 51 51 49 51 50 50 51 51 49 48 48 50
42 45 47 48 46 42 44 46 48 49 50 48 47 49 50 50 47 47 48 46 47 48 50 49 49 49 51 50 48 49 51 51 52 52 52 52 51 51 51 52 53 53 52 52 51 51 51 51 49 50 47 50 52 49 52 51 50 51 50 49 48 47 48
41 47 48 48 48 47 48 49 49 50 52 51 49 49 48 49 49 50 47 48 49 48 49 50 49 49 50 50 49 50 51 50 51 52 53 52 50 49 48 49 53 52 52 52 53 52 52 52 51 49 48 50 50 48 51 50 50 50 50 49 47 47 49